GFSGBSN_con_mucape_000.txt.gz
CAPE
0 0 3 1 11 7 5 1 2 1 1 0 0 0 0 0 2 1 1 1 2 1 0 0 0 0 0 28 0 0 45 228 42 0 0 0 0 0 0 0 0 0 0 0 0 0 0
0 0 5 10 10 0 3 2 2 0 0 0 0 0 0 1 5 2 1 1 1 0 0 0 0 0 1 0 0 0 0 0 0 0 0 0 0 0 0 0 0 0 0 0 0 0 0
0 0 4 4 0 0 1 1 0 0 0 0 0 0 0 1 6 4 1 0 0 0 0 0 0 0 0 2 0 0 0 0 0 0 0 0 0 0 0 0 0 0 0 0 0 0 0
0 0 1 0 0 0 1 0 0 0 0 0 0 1 0 2 1 0 0 0 0 0 0 0 0 0 0 0 0 0 0 0 0 0 0 0 0 0 0 0 0 0 0 0 1 0 0
0 0 0 0 0 0 0 0 0 0 0 0 0 0 0 0 0 0 0 0 0 0 0 0 0 51 0 0 0 0 0 0 0 0 0 0 0 0 0 0 0 1 0 1 0 0 0
0 0 0 0 0 0 0 0 0 0 0 0 0 0 0 0 0 0 0 0 0 0 0 0 31 4 6 28 0 0 0 0 0 6 0 0 0 0 0 0 0 0 0 0 0 0 0
0 0 0 0 0 0 0 0 0 0 0 0 0 0 0 0 0 0 0 0 0 0 0 0 0 12 0 0 0 0 0 0 0 3 0 0 0 0 0 0 0 0 0 0 0 1 0
0 0 0 0 0 0 0 0 0 0 0 0 0 0 0 0 0 0 0 332 368 261 5 0 0 0 0 0 0 0 0 0 0 0 0 1 2 1 0 0 0 2 2 0 0 2 0
0 0 0 0 0 0 0 0 0 0 0 0 0 0 0 0 0 197 386 301 177 246 13 0 0 0 0 0 0 0 0 0 0 0 0 0 0 0 0 0 0 0 0 0 0 7 0
0 0 0 0 0 0 0 0 0 0 0 0 0 0 0 0 20 225 182 289 452 487 0 0 0 0 0 0 0 0 0 0 0 0 0 0 0 0 0 0 0 0 2 0 0 15 0
0 0 0 0 0 0 0 0 0 0 0 0 0 0 0 0 324 428 321 463 584 460 0 0 0 0 0 0 0 0 0 0 0 0 0 0 0 0 0 0 0 0 0 0 0 0 0
0 0 0 0 0 0 0 0 0 0 0 0 0 0 0 0 539 590 674 564 123 31 0 0 0 0 0 0 0 0 0 0 0 0 0 0 0 0 0 0 0 0 0 7 6 1 7
0 0 0 0 0 0 0 0 0 0 0 0 0 0 171 635 893 900 655 15 8 118 0 0 0 0 0 0 0 0 0 0 0 0 0 0 0 0 0 0 0 0 13 26 31 23 25
0 0 0 0 0 0 0 0 0 0 0 0 0 0 729 1159 1307 652 141 0 8 11 0 0 0 0 0 0 0 5 0 0 2 4 0 0 0 0 0 0 0 0 0 6 17 23 15
0 0 0 0 0 0 0 0 0 0 0 0 0 40 945 614 1050 137 146 207 193 0 0 0 0 0 0 0 0 0 0 0 0 1 0 0 0 0 0 0 0 0 0 0 0 0 0
0 0 0 0 0 0 0 0 0 0 0 0 3 311 160 552 249 4 134 352 155 0 0 0 0 0 0 0 0 0 0 0 0 0 0 0 0 0 0 0 0 0 0 0 0 0 0
0 0 0 0 0 0 0 0 0 0 0 0 222 0 213 929 0 0 50 249 89 0 11 0 0 0 0 0 0 0 0 0 0 0 0 0 0 0 0 0 0 0 0 0 0 0 0
0 0 0 0 0 0 0 0 0 0 0 0 124 0 460 232 0 0 5 154 0 0 4 5 0 0 0 0 0 0 0 0 0 0 0 0 0 0 0 0 0 0 0 0 0 0 0
0 0 0 0 0 0 0 0 0 0 0 0 34 223 600 416 0 0 7 100 106 3 0 0 0 0 0 0 0 0 0 0 0 0 0 0 0 0 0 0 0 0 0 0 0 0 0
0 0 0 0 0 0 0 0 0 0 0 45 86 68 23 121 12 19 31 0 0 0 0 0 0 0 0 0 0 0 0 0 0 0 0 0 0 0 0 0 0 0 0 0 0 0 0
0 0 0 0 0 0 0 0 0 0 0 0 139 0 0 0 0 293 188 1 0 0 0 0 0 0 0 0 0 0 0 0 0 0 0 0 0 0 0 0 0 0 0 0 0 0 0
0 0 0 0 0 0 0 0 0 0 0 6 165 44 0 0 34 142 65 26 0 0 0 0 0 0 0 0 0 0 0 0 0 0 0 0 0 0 0 0 0 0 0 0 0 0 0
0 0 0 0 0 0 0 0 0 0 8 115 29 48 0 2 118 10 36 3 0 0 0 0 0 0 0 0 0 0 0 0 0 0 0 0 0 0 0 0 0 0 0 0 0 0 0
0 0 0 0 12 16 0 0 0 0 15 191 170 197 106 8 17 0 41 0 0 0 0 0 0 0 0 0 0 0 0 0 0 0 0 0 0 0 0 0 0 0 0 0 0 0 0
0 0 0 0 1 40 10 0 0 3 33 66 23 407 2 31 102 79 38 0 0 3 0 0 0 0 0 0 0 0 0 0 0 0 0 0 0 0 0 0 0 0 0 0 0 0 0
0 0 0 0 0 24 32 19 12 62 60 39 28 194 4 0 136 26 3 0 0 0 0 0 0 0 0 0 0 0 0 0 0 0 0 0 0 0 0 0 0 0 0 0 0 0 0
0 0 0 0 0 0 46 46 27 61 118 58 38 139 349 44 29 50 15 0 0 0 0 0 0 0 0 0 0 0 0 0 0 0 0 0 0 0 0 0 0 0 0 0 0 0 0
0 0 0 0 0 0 0 17 46 27 211 163 166 412 379 51 49 59 21 6 0 0 0 0 0 0 0 0 0 0 0 0 0 0 0 0 0 0 0 0 0 0 0 0 0 0 0
0 0 0 0 0 0 0 0 0 2 204 393 160 286 162 55 45 47 31 23 18 11 3 0 0 0 0 0 0 0 0 0 0 0 0 0 0 0 0 0 0 0 0 0 0 0 0

GFSGBSN_con_mucape_003.txt.gz
CAPE
26 24 7 0 4 11 10 0 1 1 2 1 1 1 0 0 2 1 2 2 1 1 0 0 0 0 2 6 0 0 329 307 0 0 0 1 0 0 0 0 0 0 0 0 0 5 0
23 17 1 0 5 6 6 5 1 2 1 0 0 0 0 0 1 1 1 0 1 0 0 0 0 0 0 0 0 0 0 0 1 0 0 0 0 0 0 0 0 0 0 0 0 0 0
3 6 0 0 4 1 4 0 2 2 0 0 0 0 0 0 1 1 1 0 0 0 0 0 0 1 0 0 0 0 0 0 0 0 0 0 0 0 0 0 0 0 0 0 0 0 0
0 0 0 0 0 0 0 0 1 0 0 0 0 0 0 0 0 1 0 0 0 0 0 0 0 0 0 0 0 0 0 0 0 1 0 0 0 0 0 0 0 0 0 0 0 0 0
0 0 0 0 0 0 0 0 0 0 0 0 0 0 0 1 1 0 0 0 0 0 0 0 0 25 0 0 0 0 0 0 0 0 0 0 0 0 0 0 0 0 0 1 0 0 0
0 0 0 0 0 0 0 0 0 0 0 0 0 0 0 0 0 0 0 0 0 0 0 0 25 0 0 0 0 0 0 0 0 0 0 0 0 0 0 0 0 2 3 3 0 0 0
0 0 0 0 0 0 0 0 0 0 0 0 0 0 0 0 0 0 0 0 0 0 0 0 0 2 11 39 0 0 0 1 14 13 7 7 2 0 0 0 3 0 0 0 0 0 0
0 0 0 0 0 0 2 0 0 0 0 0 0 0 0 0 0 0 17 348 457 347 29 0 0 0 0 0 0 0 0 6 16 6 0 0 0 2 0 0 1 0 0 2 0 0 0
0 0 0 0 0 0 0 0 0 0 0 0 0 0 0 0 0 155 355 247 270 108 26 0 0 0 0 0 0 0 0 0 1 5 3 0 0 0 4 0 0 0 0 0 0 0 0
0 0 0 0 0 0 0 0 0 0 0 0 0 0 0 0 85 199 191 279 479 485 3 0 0 0 0 0 0 0 0 0 3 0 0 0 0 0 0 0 0 0 0 0 0 0 0
0 0 0 0 0 0 0 0 0 0 0 0 0 0 0 0 308 341 471 474 550 447 0 0 0 0 0 0 0 0 0 0 0 0 0 0 1 0 0 0 0 0 0 0 0 0 0
0 0 0 0 0 0 0 0 0 0 0 0 0 0 0 45 476 657 756 277 189 2 0 0 0 0 0 0 0 0 0 0 0 9 2 0 0 0 0 0 0 0 1 7 6 2 0
0 0 0 0 0 0 0 0 0 0 0 0 0 0 0 463 991 984 302 0 0 105 0 0 0 0 0 0 0 0 0 1 0 0 0 0 0 0 0 0 0 0 6 23 26 20 15
0 0 0 0 0 0 0 0 0 0 0 0 0 0 366 777 1231 521 0 0 2 0 0 0 0 0 0 0 0 0 0 6 0 0 0 0 0 0 0 0 0 0 0 15 16 17 0
0 0 0 0 0 0 0 0 0 0 0 0 0 266 683 752 959 1 0 0 159 0 0 0 0 0 0 1 0 1 0 0 6 11 0 0 0 0 0 0 0 0 0 0 0 0 0
0 0 0 0 0 0 0 0 0 0 0 0 5 134 64 604 0 0 6 220 278 11 0 0 0 0 0 3 5 1 0 0 0 17 0 0 0 0 0 0 0 0 0 0 0 0 0
0 0 0 0 0 0 0 0 0 0 0 0 111 0 23 660 0 0 0 167 198 8 16 0 0 0 0 0 0 0 0 0 0 0 0 0 0 0 0 0 0 0 0 0 0 0 0
0 0 0 0 0 0 0 0 0 0 0 0 0 0 586 16 0 0 27 151 70 0 30 36 19 0 0 0 0 0 0 0 0 0 0 0 0 0 0 0 0 0 0 0 0 0 0
0 0 0 0 0 0 0 0 0 0 0 0 0 462 702 1 0 0 71 91 62 2 0 8 19 0 0 0 0 0 0 0 0 0 0 0 0 0 0 0 0 0 0 0 0 0 0
0 0 0 0 0 0 0 0 0 0 0 0 2 101 78 6 0 0 16 42 46 7 0 0 5 0 0 0 0 0 0 0 0 0 0 0 0 0 0 0 0 0 0 0 0 0 0
0 0 0 0 0 0 0 0 0 0 0 27 8 0 0 0 0 58 1 0 0 0 0 0 0 0 0 0 0 0 0 0 0 0 0 0 0 0 0 0 0 0 0 0 0 0 0
0 0 0 0 0 0 0 0 0 0 0 0 65 0 0 0 0 87 44 74 0 0 0 0 0 0 0 0 0 0 0 0 0 0 0 0 0 0 0 0 0 0 0 0 0 0 0
0 0 0 0 0 0 0 0 0 0 0 0 61 11 0 0 0 0 47 125 14 0 0 0 0 0 0 0 0 0 0 0 0 0 0 0 0 0 0 0 0 0 0 0 0 0 0
0 0 0 0 0 0 0 0 0 0 0 17 105 45 0 0 0 1 52 79 28 0 0 0 0 0 0 0 0 0 0 0 0 0 0 0 0 0 0 0 0 0 0 0 0 0 0
0 0 0 0 0 0 0 0 0 0 0 74 39 151 5 0 0 1 5 20 2 0 0 0 0 0 0 0 0 0 0 0 0 0 0 0 0 0 0 0 0 0 0 0 0 0 0
0 0 0 5 21 0 0 0 1 1 5 33 23 93 15 63 20 2 102 17 0 0 0 0 0 0 0 0 0 0 0 0 0 0 0 0 0 0 0 0 0 0 0 0 0 0 0
0 0 0 0 20 6 3 0 49 32 21 2 36 217 143 3 76 41 5 0 0 0 0 0 0 0 0 0 0 0 0 0 0 0 0 0 0 0 0 0 0 0 0 0 0 0 0
0 0 0 0 0 16 18 11 36 60 23 28 140 426 55 21 27 93 30 0 0 0 0 0 0 0 0 0 0 0 0 0 0 0 0 0 0 0 0 0 0 0 0 0 0 0 0
0 0 0 0 0 8 39 33 23 139 144 139 185 99 53 52 28 48 39 23 11 16 11 5 0 0 0 0 0 0 0 0 0 0 0 0 0 0 0 0 0 0 0 0 0 0 0

GFSGBSN_con_mucape_006.txt.gz
CAPE
16 15 15 20 13 0 0 8 2 1 2 0 0 1 1 1 0 1 1 1 2 1 1 0 0 0 0 0 0 18 412 298 0 0 0 0 0 0 0 0 0 0 0 0 5 6 7
0 0 10 18 10 0 0 7 6 0 1 0 1 0 0 0 0 0 1 1 1 1 0 0 0 0 0 0 1 0 10 0 0 0 0 6 0 0 0 0 0 0 0 0 4 15 0
0 0 0 9 1 0 1 2 3 0 1 0 0 0 0 0 0 0 1 1 0 0 0 0 0 0 0 0 0 0 0 0 0 0 0 5 0 0 0 0 0 0 0 0 0 0 0
0 0 0 0 0 0 0 0 0 0 0 0 0 0 0 0 0 0 1 0 0 0 0 0 0 2 0 0 0 0 0 0 1 0 0 4 0 0 0 0 0 0 0 0 0 0 0
0 0 0 0 0 0 0 0 0 0 0 0 0 0 0 0 0 0 0 0 0 0 0 0 6 0 0 0 0 0 0 0 12 1 1 0 0 0 0 0 0 0 0 0 0 0 0
0 0 0 0 0 0 0 0 0 0 0 0 0 0 0 2 0 1 0 0 0 0 0 0 0 0 0 0 0 0 0 0 5 7 0 0 0 0 0 0 0 0 0 0 0 0 0
0 0 0 0 0 0 0 0 0 0 0 0 0 0 0 0 1 1 0 0 0 0 0 0 0 0 0 0 0 0 0 0 8 3 4 1 0 0 0 0 0 0 0 0 0 0 0
0 0 0 0 0 0 0 0 0 0 0 0 0 0 0 0 2 0 0 117 377 276 7 0 7 0 0 0 0 0 0 14 18 12 29 27 19 9 6 0 0 0 0 0 0 0 0
0 0 0 0 0 0 0 0 0 0 0 0 0 0 0 0 0 116 231 141 280 192 41 0 0 0 0 0 0 0 20 27 30 40 25 9 1 8 9 2 0 0 0 0 3 0 0
4 0 0 0 0 0 0 0 0 0 0 0 0 0 0 0 53 80 69 251 473 362 0 0 0 0 0 0 0 0 11 24 29 25 20 9 8 0 0 0 0 1 0 0 0 1 0
12 0 0 0 0 0 0 0 0 0 0 0 0 0 0 0 68 135 469 536 455 277 0 0 0 0 0 0 0 0 2 8 1 3 0 3 10 0 0 0 0 0 0 0 0 0 0
15 0 0 0 0 0 0 0 0 0 0 0 0 0 0 24 149 490 640 279 114 0 0 0 0 0 0 0 0 0 12 0 0 12 2 0 3 4 0 0 0 0 0 0 0 0 0
5 0 0 0 0 0 0 0 0 0 0 0 0 0 0 216 783 983 209 0 0 2 0 0 0 0 0 0 0 0 5 0 0 0 0 0 0 0 0 0 0 0 0 0 0 0 0
0 5 0 0 0 0 0 0 0 0 0 0 0 0 0 501 843 345 0 0 0 3 0 0 0 0 0 0 0 0 0 0 0 0 0 0 0 0 0 0 0 0 0 0 0 0 0
9 4 0 0 0 0 0 0 0 0 0 0 0 0 221 511 508 1 0 0 18 0 0 0 0 0 0 0 0 0 0 10 6 0 0 0 0 0 0 0 0 0 0 0 0 0 0
11 3 0 0 0 0 0 0 0 0 0 0 0 81 192 390 0 0 0 0 293 48 0 0 0 0 0 2 0 0 0 0 8 25 0 0 0 0 0 0 0 0 0 0 0 0 0
30 0 0 0 0 0 0 0 0 0 0 0 24 34 44 379 0 0 0 4 189 81 1 0 0 0 0 5 3 1 0 0 0 0 14 0 0 0 0 0 0 0 0 0 0 0 0
36 0 0 0 0 0 0 0 0 0 0 0 0 0 495 1 0 0 0 43 70 2 46 49 0 0 0 1 1 0 0 0 0 0 0 0 0 0 0 0 0 0 0 0 0 0 0
28 0 0 0 0 0 0 0 0 0 0 4 0 273 548 0 0 0 0 84 17 0 11 44 34 1 0 0 0 0 0 0 0 0 0 0 0 0 0 0 0 0 0 0 0 0 0
0 0 0 0 0 0 0 0 0 0 0 8 13 49 316 6 0 0 0 65 63 10 5 20 28 5 0 0 0 0 0 0 0 0 0 0 0 0 0 0 0 0 0 0 0 0 0
0 0 0 0 0 0 0 0 0 0 0 15 0 1 8 0 0 0 0 23 46 21 6 14 25 17 1 0 0 0 0 0 0 0 0 0 0 0 0 0 0 0 0 0 0 0 0
0 0 0 0 0 0 0 0 0 0 0 48 6 0 0 0 0 0 0 0 0 0 2 0 0 12 3 0 0 0 0 0 0 0 0 0 0 0 0 0 0 0 0 0 0 0 0
0 0 0 0 0 0 0 0 0 0 0 31 25 0 0 0 0 0 0 10 23 0 0 0 0 0 0 0 0 0 0 0 0 0 0 0 0 0 0 0 0 0 0 0 0 0 0
0 0 0 0 0 0 0 0 0 0 0 0 26 19 0 0 0 0 0 0 91 4 0 0 0 0 0 0 0 0 0 0 0 0 0 0 0 0 0 0 0 0 0 0 0 0 0
0 0 0 0 0 0 0 0 0 0 0 69 72 90 3 0 0 0 0 0 90 38 0 0 0 0 0 0 0 0 0 0 0 0 0 0 0 0 0 0 0 0 0 0 0 0 0
0 0 0 0 0 0 0 0 0 0 0 33 66 84 32 0 0 0 4 63 62 30 1 0 0 0 0 0 0 0 0 0 0 0 0 0 0 0 0 0 0 0 0 0 0 0 0
0 0 0 8 1 0 0 0 0 0 0 34 89 179 33 6 0 0 0 35 10 3 12 0 0 0 0 0 0 0 0 0 0 0 0 0 0 0 0 0 0 0 0 0 0 0 0
0 0 0 30 0 0 0 16 20 3 13 28 63 234 55 27 0 0 72 51 8 0 0 0 0 0 0 0 0 0 0 0 0 0 0 0 0 0 0 0 0 0 0 0 0 0 0
0 0 0 1 0 0 6 44 78 84 19 18 106 99 69 52 127 67 51 24 2 2 8 0 0 0 0 0 0 0 0 0 0 0 0 0 0 0 0 0 0 0 0 0 0 0 0

GFSGBSN_con_mucape_009.txt.gz
CAPE
0 2 0 0 2 19 11 0 0 2 1 2 0 0 0 0 0 3 0 0 0 0 0 1 0 0 0 0 0 25 365 225 4 0 0 0 0 0 0 0 0 0 0 0 5 9 17
0 0 0 0 0 8 15 0 0 1 0 0 0 0 0 0 0 0 0 0 0 0 0 0 0 0 0 0 0 42 87 0 0 0 0 0 0 0 0 0 0 0 0 0 0 19 39
2 0 0 0 0 0 5 0 0 1 1 0 0 0 0 0 0 0 0 0 1 0 0 0 0 0 0 0 0 0 0 0 0 0 0 2 0 0 0 0 0 0 0 0 0 16 4
19 0 0 0 0 0 0 0 0 0 0 0 0 0 0 0 0 0 0 1 0 0 0 0 0 0 0 0 0 0 0 15 12 0 0 0 0 0 0 0 0 0 0 0 0 0 0
32 7 0 0 0 0 0 0 0 0 0 0 0 0 0 0 0 0 0 0 0 0 0 0 0 0 1 0 0 1 0 8 11 0 0 0 0 0 0 0 0 0 0 0 0 0 0
32 20 0 0 0 0 0 0 0 0 0 0 0 0 0 0 1 1 0 0 0 0 0 0 0 0 0 0 0 0 0 1 15 0 0 0 0 2 0 1 0 0 0 0 0 0 0
30 25 9 0 0 0 0 0 0 0 0 0 0 0 0 0 1 0 0 0 0 0 0 0 0 0 0 0 0 0 1 1 21 2 9 0 0 0 0 0 0 0 0 0 0 0 0
17 33 9 0 0 0 0 0 0 0 0 0 0 0 0 2 2 0 0 5 72 130 17 0 0 0 0 0 0 0 0 0 4 5 0 1 0 0 0 0 0 0 0 0 0 0 0
4 12 10 3 0 0 0 0 0 0 0 0 0 0 0 1 0 0 85 170 174 228 16 0 0 0 0 0 0 0 4 21 25 26 20 2 13 15 14 8 2 1 1 0 0 0 0
1 10 12 6 0 0 0 0 0 0 0 0 0 0 2 0 0 98 60 215 328 368 0 0 0 0 0 0 0 0 11 25 36 46 35 18 6 14 10 11 15 8 3 0 1 1 6
2 1 14 7 0 0 0 0 0 0 0 0 0 0 0 0 36 20 244 436 368 149 0 0 0 0 0 0 0 1 31 37 37 30 22 13 16 16 12 0 7 0 0 0 0 0 0
32 3 27 14 0 0 0 0 0 0 0 0 0 0 0 0 9 203 449 402 206 0 6 0 0 0 0 0 0 9 37 15 25 32 39 21 32 9 0 0 1 0 0 0 0 0 0
54 0 30 15 0 0 0 0 0 0 0 0 0 0 0 0 154 681 561 36 0 0 0 0 0 0 0 0 0 12 0 0 6 6 0 0 0 0 6 0 0 0 0 3 2 0 0
76 0 13 21 0 0 0 0 0 0 0 0 0 0 0 0 493 346 0 0 0 4 0 0 0 0 0 0 0 0 0 0 0 0 0 0 0 0 0 0 0 0 0 17 0 0 0
96 14 12 17 0 0 0 0 0 0 0 0 0 0 0 235 239 40 0 0 0 1 0 0 0 0 0 0 0 0 0 0 0 0 0 0 0 0 0 1 0 0 0 0 0 0 0
137 45 4 15 0 0 0 0 0 0 0 0 0 0 0 155 355 0 0 0 30 73 0 0 0 0 0 0 0 0 0 0 0 0 0 0 0 0 0 0 0 0 0 0 0 0 0
142 40 15 2 2 0 0 0 0 0 0 0 0 3 50 298 0 0 0 0 40 116 4 0 0 0 0 0 0 0 0 0 0 2 8 1 0 0 0 0 0 0 0 0 0 0 0
117 9 0 0 8 0 0 0 0 0 0 0 0 41 164 13 0 0 0 0 24 14 11 4 0 0 0 0 1 0 0 0 0 0 0 0 0 0 0 0 0 0 0 0 0 0 0
125 17 2 27 12 0 0 0 0 0 0 0 14 91 231 0 0 0 0 0 0 1 26 41 9 0 0 0 0 0 0 0 0 0 0 0 0 0 0 0 0 0 0 0 0 0 0
44 3 5 49 2 0 0 0 0 0 0 0 52 54 179 0 0 0 0 0 9 0 0 29 33 9 0 0 0 3 2 1 0 0 0 0 0 0 0 0 0 0 0 0 0 0 0
10 0 27 44 0 0 0 0 0 0 0 20 3 3 8 0 0 0 0 0 15 1 6 41 45 14 0 0 0 0 6 5 0 0 0 0 0 0 0 0 0 0 0 0 0 0 0
6 25 30 3 0 0 0 0 0 0 0 44 0 0 0 0 0 0 0 0 3 1 5 3 22 26 9 0 0 0 0 0 0 0 0 0 0 0 0 0 0 0 0 0 0 0 0
1 23 24 0 0 0 0 0 0 0 0 74 12 0 0 0 0 0 0 0 0 0 0 0 0 0 0 0 0 0 0 0 0 0 0 0 0 0 0 0 0 0 0 0 0 0 0
26 18 1 0 0 0 0 0 0 0 21 65 52 0 0 0 0 0 0 0 0 1 0 0 0 1 0 0 0 0 0 0 0 0 0 0 0 0 0 0 0 0 0 0 0 0 0
0 0 0 0 0 0 0 0 0 0 22 130 103 33 0 0 0 0 0 0 1 57 1 0 0 0 0 0 0 0 0 0 0 0 0 0 0 0 0 0 0 0 0 0 0 0 0
4 0 0 0 0 0 0 0 0 0 12 109 155 185 58 0 0 0 0 0 0 67 0 0 0 0 0 0 0 0 0 0 0 0 0 0 0 0 0 0 0 0 0 0 0 0 0
0 0 0 0 0 0 0 0 0 0 8 73 151 110 88 14 0 0 0 0 0 37 18 0 0 0 0 0 0 0 0 0 0 0 0 0 0 0 0 0 0 0 0 0 0 0 0
0 0 0 0 0 0 0 0 0 0 0 68 162 223 195 38 0 0 0 0 7 27 25 0 0 0 0 0 0 0 0 0 0 0 0 0 0 0 0 0 0 0 0 0 0 0 0
0 0 0 4 9 5 0 0 0 0 5 83 118 86 115 62 0 0 0 0 10 0 0 0 0 0 0 0 0 0 0 0 0 0 0 0 0 0 0 0 0 0 0 0 0 0 0

GFSGBSN_con_mucape_012.txt.gz
CAPE
14 0 0 0 0 0 0 3 9 0 0 0 7 5 2 0 0 0 0 0 0 0 0 0 0 0 0 0 1 222 258 165 0 0 0 0 0 0 0 0 0 0 46 0 16 4 74
21 21 2 0 0 0 0 0 3 0 0 0 1 0 0 0 0 0 0 0 0 0 0 0 0 0 0 0 0 185 114 0 0 0 0 0 0 0 0 0 0 0 5 0 9 6 29
14 22 21 1 0 0 0 0 0 0 0 0 0 0 0 0 0 0 0 0 0 0 0 0 0 0 0 1 0 175 22 0 0 0 0 0 0 0 0 0 0 0 0 0 6 0 37
2 19 23 15 0 0 0 0 0 0 0 0 0 0 0 0 0 0 0 0 0 0 0 0 0 0 19 0 0 0 0 7 10 0 0 0 0 0 0 0 0 0 0 0 0 0 24
0 4 20 24 3 0 0 0 0 0 0 0 0 0 0 0 0 0 0 0 0 0 0 0 0 0 24 0 0 0 0 8 8 0 0 0 0 0 0 0 0 0 0 0 0 0 0
26 0 0 23 4 0 0 0 0 0 0 0 0 0 0 0 0 0 0 0 0 0 0 0 0 65 55 0 1 5 0 0 1 0 0 0 0 0 0 0 1 0 0 0 0 0 0
42 34 1 18 14 0 0 0 0 0 0 0 0 0 0 0 0 0 0 0 0 0 0 0 0 1 0 0 0 2 0 0 0 0 23 0 0 0 0 0 0 0 0 0 0 4 64
33 35 16 33 14 1 0 0 0 0 0 0 0 0 0 0 0 0 0 0 0 37 74 5 0 0 0 0 0 23 1 22 51 9 0 1 1 0 1 0 0 0 0 21 0 0 107
46 44 11 7 16 9 0 0 0 0 0 0 0 0 0 0 0 0 0 12 89 126 378 1 0 0 0 0 0 16 4 5 20 17 4 45 12 0 18 15 17 20 52 87 56 18 73
54 50 19 3 13 10 0 0 0 0 0 0 0 0 0 0 0 0 0 0 109 233 22 0 0 0 0 0 0 0 5 26 14 67 82 138 27 60 96 71 48 134 12 23 61 62 89
61 61 41 0 1 6 1 0 0 0 0 0 0 0 0 0 0 0 14 133 188 78 0 0 0 0 0 0 0 15 21 50 27 73 142 150 88 99 122 94 49 117 12 114 67 139 121
59 74 67 1 8 10 1 0 0 0 0 0 0 0 0 0 0 0 59 323 209 259 0 0 0 0 9 0 0 18 40 24 35 107 143 102 36 81 79 14 14 3 52 51 56 107 144
63 66 62 28 0 7 9 0 0 0 0 0 0 0 0 0 0 10 371 254 53 17 1 0 0 0 18 8 18 91 131 132 149 191 213 125 88 39 27 69 8 65 127 157 100 150 164
79 93 74 64 0 13 7 0 0 0 0 0 0 0 0 0 16 176 32 0 3 0 4 0 0 0 38 8 16 50 119 159 55 139 203 106 128 0 0 44 59 126 130 83 20 122 54
112 129 95 83 2 15 24 1 0 0 0 0 0 0 0 0 63 51 0 119 1 5 8 0 0 0 23 12 0 69 114 150 30 61 68 56 1 0 0 0 0 0 30 23 53 1 47
140 97 76 68 0 32 37 2 0 0 0 0 0 1 0 5 114 0 78 0 0 72 3 0 0 0 15 27 0 4 98 6 11 0 2 46 7 0 0 0 0 0 0 8 13 2 0
180 134 88 83 8 40 60 8 0 0 0 0 1 0 52 202 142 10 133 0 5 279 106 0 0 0 0 26 12 0 0 2 0 0 0 0 15 2 0 0 10 0 0 0 0 0 0
181 146 97 82 0 30 44 19 0 0 0 0 0 7 37 114 11 0 0 0 72 180 3 0 3 0 9 44 31 51 2 18 0 0 0 0 12 58 0 0 0 0 0 0 0 0 0
179 178 139 116 67 11 14 29 0 0 0 0 0 198 80 43 21 41 0 0 84 23 0 91 45 65 76 132 115 74 24 0 0 0 0 0 1 0 0 0 0 0 0 0 0 0 0
137 185 199 149 0 11 8 19 0 0 0 24 44 229 215 12 0 0 0 0 0 0 5 33 85 127 156 92 34 82 21 0 0 0 0 0 0 0 52 0 0 0 0 0 0 0 0
164 196 136 91 3 2 58 9 0 0 0 0 107 79 43 45 0 0 0 0 0 38 7 38 94 162 218 178 70 80 7 0 0 0 0 0 0 0 0 0 0 0 0 0 0 0 0
226 162 60 60 0 0 74 2 0 0 0 13 107 80 15 0 0 0 0 0 0 10 63 98 199 110 143 223 114 145 12 2 0 0 0 0 0 0 0 0 0 0 0 0 0 0 0
177 84 9 15 0 36 44 0 0 0 0 36 79 11 56 0 0 0 0 0 0 130 13 9 190 177 136 44 0 0 0 0 0 0 0 0 0 0 0 0 0 0 0 0 0 0 0
94 68 68 0 29 35 6 0 0 0 6 169 231 75 99 1 0 0 0 0 70 141 174 0 43 188 0 0 0 0 0 0 0 0 0 0 0 0 0 0 0 0 0 0 0 0 0
78 0 0 33 40 2 0 0 0 8 35 294 214 147 73 0 3 0 0 0 0 4 61 39 0 0 0 0 16 0 0 0 0 0 0 0 0 0 10 0 0 0 0 0 0 0 0
0 1 43 54 5 0 0 0 0 4 40 293 338 59 274 61 0 0 0 0 97 177 61 0 0 0 0 3 7 46 4 0 0 0 0 0 0 0 0 113 180 0 0 0 0 0 0
21 25 30 9 0 0 0 0 0 0 7 257 347 92 333 195 5 0 0 0 37 176 248 0 0 0 0 1 564 198 23 0 0 0 0 0 0 0 0 0 0 0 0 0 0 0 0
19 20 0 0 0 0 0 0 0 0 11 279 386 160 682 520 5 2 0 0 0 183 337 0 2 4 0 122 551 24 134 0 0 0 0 0 0 0 0 5 0 0 0 1 0 0 0
22 0 0 0 0 0 0 0 0 0 41 224 656 266 188 402 54 0 0 0 0 71 125 0 219 11 47 63 3 0 0 0 0 4 0 0 0 0 0 0 0 0 0 0 0 0 0

GFSGBSN_con_mucape_015.txt.gz
CAPE
2 12 18 7 0 0 0 0 0 0 0 0 0 1 9 7 0 0 0 0 0 0 0 0 0 0 0 80 117 306 177 169 0 0 0 0 0 0 0 0 0 0 5 3 17 56 25
0 2 16 20 16 0 0 0 0 0 0 0 0 0 5 8 0 0 0 0 0 0 0 0 0 0 0 115 8 266 5 0 1 5 0 0 0 0 0 0 7 2 0 0 0 0 26
18 0 2 9 25 12 0 0 0 0 0 0 0 0 0 0 0 0 0 0 0 0 0 0 0 0 0 95 16 210 1 0 0 0 0 0 0 0 0 0 0 0 0 0 2 0 34
23 16 1 2 13 21 4 0 0 0 0 0 0 0 0 0 0 0 0 0 0 0 0 0 0 0 25 40 30 53 158 24 3 0 0 2 0 0 0 0 0 0 0 16 9 30 38
27 23 7 2 13 23 7 0 0 0 0 0 0 0 0 0 0 0 0 0 0 0 0 0 0 0 180 0 2 1 17 7 17 3 0 0 0 0 0 2 2 1 0 2 5 4 37
32 33 27 10 0 19 24 0 0 0 0 0 0 0 0 0 0 0 0 0 0 0 0 0 0 68 187 0 8 0 0 1 35 11 1 0 3 14 4 12 0 2 6 15 23 0 0
20 39 35 31 0 4 17 5 0 0 0 0 0 0 0 0 0 0 0 0 0 0 0 1 4 0 0 0 0 0 0 0 22 91 111 1 15 5 0 0 0 4 2 6 6 0 0
32 34 36 29 35 4 12 6 0 0 0 0 0 0 0 0 0 0 0 0 0 48 146 0 0 0 0 0 5 0 0 2 38 64 56 14 0 7 0 0 0 0 2 18 3 0 49
40 44 42 26 36 11 19 14 0 0 0 0 0 0 0 0 0 0 0 0 0 20 297 21 0 0 0 7 2 20 5 18 25 34 0 47 20 3 0 0 0 14 4 28 46 68 90
54 40 38 40 29 12 11 17 4 0 0 0 0 0 0 0 0 0 0 0 0 18 206 0 0 0 0 3 13 0 8 33 6 20 13 11 55 4 2 4 5 45 67 36 69 155 125
51 51 48 46 36 20 0 12 23 0 0 0 0 0 0 0 2 0 72 27 22 257 94 7 12 0 0 0 7 11 12 7 0 40 2 87 114 138 57 54 132 225 108 147 145 121 49
63 76 58 53 39 34 0 1 14 5 0 0 0 0 0 0 0 0 0 636 479 393 44 0 0 0 4 7 0 33 15 16 50 36 64 27 151 166 186 134 118 129 184 197 193 181 217
81 79 72 60 43 43 1 2 4 5 0 0 0 0 0 0 0 0 397 685 283 20 2 0 0 0 6 0 2 7 3 16 7 5 142 155 124 124 121 161 172 157 219 215 175 267 209
9 68 83 69 45 38 11 0 4 7 0 0 0 0 0 0 0 58 925 459 65 0 21 0 0 0 22 9 1 10 15 22 33 157 42 143 230 122 119 190 186 171 176 195 46 152 128
4 4 84 69 64 35 26 5 16 11 0 0 0 0 0 1 0 2 534 212 37 1 12 0 0 0 22 1 1 54 102 111 91 76 83 131 52 48 52 81 54 138 132 139 219 180 177
0 2 91 83 73 57 29 3 15 9 4 0 8 0 0 0 0 85 231 2 12 24 1 0 0 0 50 39 0 21 142 170 201 163 240 137 145 13 4 19 26 61 67 65 19 7 34
79 0 117 103 79 69 37 8 3 16 3 0 26 3 66 14 11 56 52 0 18 36 3 0 0 0 41 53 19 18 118 187 201 170 144 41 24 96 0 13 43 50 0 0 44 103 32
92 32 80 118 89 80 52 0 20 19 0 0 32 15 194 473 33 92 105 0 0 116 161 19 5 0 0 44 54 25 3 21 121 127 5 0 53 247 113 5 1 49 88 38 0 0 0
72 18 53 124 69 77 61 14 14 21 0 11 84 164 654 521 144 591 40 3 2 90 65 63 0 0 0 0 0 0 2 49 43 124 5 102 6 135 79 50 2 0 0 0 0 0 0
0 24 78 115 28 2 22 24 13 17 0 68 132 190 352 121 245 96 36 21 3 50 41 60 0 87 118 162 156 206 213 7 0 24 0 0 0 18 133 110 47 23 0 0 0 0 0
0 23 132 115 91 0 3 9 0 18 0 34 179 80 29 133 333 107 42 4 0 8 64 167 204 74 64 122 248 281 356 11 0 2 0 18 29 3 14 1 0 0 0 0 0 0 14
1 83 99 123 125 77 81 1 0 20 0 36 164 200 173 437 130 91 43 5 1 44 129 226 174 53 92 201 250 158 372 202 185 45 86 0 53 0 0 0 0 0 0 0 0 0 0
140 111 157 154 95 62 0 0 1 26 0 44 347 308 515 145 443 85 109 17 5 154 303 220 139 251 242 410 453 356 267 184 174 270 192 49 25 0 0 0 0 0 0 0 0 0 0
169 164 194 135 84 53 13 0 15 23 0 100 344 224 127 342 433 34 15 7 5 191 297 188 317 329 245 52 48 39 0 0 0 0 40 0 0 0 0 0 0 0 0 0 0 0 0
109 188 221 159 50 27 0 3 32 2 0 139 799 445 300 803 82 32 1 0 3 307 410 331 169 233 84 164 159 51 56 9 0 0 0 0 0 0 0 0 0 0 0 0 0 0 0
168 196 182 91 82 0 0 26 66 0 8 94 1048 815 462 356 114 0 1 0 399 547 411 14 2 21 1 392 390 129 82 11 13 0 0 0 0 0 0 0 0 0 0 0 0 0 0
140 96 67 60 0 0 21 21 5 24 21 67 933 877 156 38 41 0 3 0 2 323 586 81 8 13 0 582 1481 356 122 1 0 0 0 0 0 0 0 4 0 0 0 0 0 0 0
54 58 18 0 3 18 4 4 16 18 33 78 1050 976 329 69 148 82 22 0 0 93 759 249 127 87 131 352 898 448 775 64 3 0 0 0 0 1 0 1 0 0 0 0 0 0 0
7 0 0 6 3 4 14 27 35 41 21 154 1153 631 1165 514 583 283 228 137 118 309 625 250 358 400 434 566 783 723 670 2 91 47 0 0 0 0 0 0 0 0 0 0 0 0 0

GFSGBSN_con_mucape_021.txt.gz
CAPE
8 2 0 0 0 5 6 4 0 0 0 0 0 0 0 0 0 0 0 0 0 0 0 0 0 0 0 0 13 100 133 223 0 0 0 0 0 0 0 1 0 0 2 91 48 26 35
8 2 0 7 0 0 0 2 5 3 0 0 0 0 0 0 0 0 0 0 0 0 0 0 0 0 0 0 22 48 0 0 0 0 0 0 0 0 0 0 0 0 11 136 104 10 0
7 10 7 5 0 0 1 2 0 11 7 0 0 0 0 0 0 0 0 0 0 0 0 0 0 0 0 0 0 1 16 0 0 0 0 0 0 0 0 12 29 16 5 2 64 53 39
14 9 10 8 7 1 0 0 0 2 8 1 0 0 0 0 0 0 0 0 0 0 0 0 0 0 0 0 0 0 1 0 0 0 0 0 0 0 0 0 0 0 0 1 9 63 65
19 18 13 5 6 10 0 0 0 0 2 2 0 0 0 0 0 0 0 0 0 0 0 0 0 0 0 0 0 0 0 12 1 0 0 0 0 0 0 0 0 0 0 0 0 18 5
17 25 17 13 4 5 9 3 0 1 3 6 1 0 0 0 0 0 0 0 0 0 0 0 0 0 0 0 0 0 0 1 1 0 0 0 0 0 0 0 0 0 0 0 4 5 10
28 25 22 23 19 7 2 10 0 0 1 8 6 0 0 0 0 0 0 0 0 0 0 0 0 0 0 0 0 0 0 0 11 9 43 1 3 10 0 0 0 0 0 0 0 0 0
49 38 20 26 23 12 0 0 0 0 1 5 13 0 0 0 0 0 0 0 0 0 0 0 0 0 0 0 0 0 0 0 20 12 71 13 9 0 0 0 0 0 0 0 0 0 0
53 47 39 27 40 25 14 2 0 0 0 1 19 3 0 0 0 0 0 0 0 0 0 0 0 0 0 0 0 0 0 0 3 6 5 0 12 0 0 0 1 8 14 1 0 0 0
63 50 49 44 36 39 25 11 10 0 0 2 22 8 0 0 0 0 0 0 0 0 0 0 0 0 0 0 0 0 0 0 0 4 0 0 1 0 6 0 0 0 0 4 2 4 0
0 55 51 60 42 38 30 18 12 9 0 4 3 10 0 0 0 0 1 0 0 0 0 0 0 0 0 0 0 0 0 0 0 3 0 0 3 1 1 7 0 7 0 0 8 0 2
89 0 0 74 64 41 36 30 16 10 1 1 9 11 1 0 0 0 31 117 70 19 0 0 0 0 0 0 0 0 0 0 0 0 0 0 0 5 3 0 0 77 16 15 21 2 4
101 0 0 0 85 62 0 38 20 19 12 1 11 14 1 0 0 8 3 50 17 25 0 0 0 0 0 0 0 0 0 0 1 0 0 1 0 4 26 28 13 41 13 3 0 0 1
89 101 109 0 0 2 0 38 35 17 27 0 17 20 2 0 2 6 53 49 25 0 0 0 0 0 0 0 0 0 1 0 0 0 2 41 4 8 9 27 40 3 4 2 3 0 2
118 109 98 99 11 0 0 0 49 36 37 4 29 20 5 0 4 6 45 18 0 0 0 0 0 0 0 0 0 0 0 0 0 0 0 22 48 15 31 53 31 9 18 26 7 0 1
98 85 84 84 100 111 112 81 72 51 45 2 23 19 0 0 1 27 39 0 0 0 0 2 2 0 0 0 0 0 0 0 0 0 14 12 7 0 0 4 19 27 5 63 8 0 7
130 132 112 76 90 106 88 75 93 69 64 7 25 20 0 0 0 42 0 0 0 4 0 5 5 0 0 0 0 0 0 1 5 43 33 1 1 16 8 10 8 5 0 0 2 0 0
97 119 123 100 121 67 100 55 63 84 68 22 57 23 0 0 5 12 0 0 0 8 18 11 1 0 0 8 0 0 0 272 53 51 31 0 1 23 76 26 37 1 51 54 0 0 0
89 103 129 120 124 99 99 34 79 75 63 6 41 75 24 17 0 0 0 0 0 0 1 0 17 3 2 7 14 1 137 155 162 62 32 55 0 0 0 28 99 13 2 14 8 0 0
100 104 117 117 142 29 125 44 91 75 77 18 52 69 132 32 0 0 0 0 0 1 9 12 11 57 39 27 0 22 103 89 61 2 0 59 21 0 0 0 33 27 23 0 1 0 0
87 95 103 146 102 143 119 9 63 74 88 31 41 21 30 26 4 0 0 0 0 8 3 5 0 37 9 3 1 16 157 28 65 34 1 9 0 0 1 27 18 6 6 3 0 0 0
86 102 97 142 158 134 111 10 35 98 78 54 48 49 92 13 14 1 0 0 0 1 2 15 10 13 1 0 41 49 211 172 56 17 0 0 2 0 0 0 0 0 0 0 0 0 0
92 102 108 141 135 148 115 7 18 108 111 42 15 57 79 36 3 0 0 0 0 10 2 1 65 88 50 189 203 273 250 268 138 31 6 5 5 0 0 0 0 0 0 0 0 0 0
92 113 122 124 132 160 86 1 54 85 64 9 26 75 76 44 29 0 0 0 0 5 38 41 68 95 189 267 240 280 200 194 114 132 115 90 48 12 0 0 0 0 0 0 0 0 0
83 85 76 112 135 137 76 53 95 64 69 0 32 95 80 45 29 0 0 0 171 184 104 353 405 293 283 299 110 59 33 31 3 22 169 109 28 0 0 0 0 0 0 0 0 0 0
87 90 81 117 106 94 66 28 42 13 27 0 40 81 45 85 0 0 0 43 133 239 219 131 180 295 466 440 90 16 1 0 0 0 0 0 0 0 0 0 0 0 0 0 0 0 0
68 58 3 36 138 106 80 81 42 27 2 0 31 75 24 131 10 4 0 0 207 317 143 15 129 253 475 224 111 4 4 1 2 1 0 0 0 0 0 0 0 0 0 0 0 0 0
65 0 0 30 69 78 97 81 7 0 0 2 48 103 17 99 25 185 101 252 565 285 22 10 51 91 304 55 20 243 80 0 12 1 0 0 0 0 0 0 0 0 0 0 0 0 0
46 42 52 12 48 62 66 35 12 0 0 2 28 56 52 86 107 425 259 369 492 203 182 0 3 66 249 245 405 293 147 72 0 0 0 0 0 0 0 0 0 0 0 0 0 0 0

GFSGBSN_con_mucape_024.txt.gz
CAPE
6 2 3 0 0 0 0 0 0 6 0 0 0 0 0 0 0 0 0 0 0 0 0 0 0 0 0 0 0 0 59 167 0 0 0 0 0 1 9 4 0 2 2 41 192 139 114
17 14 9 1 0 4 0 0 0 0 5 4 0 0 0 0 0 0 0 0 0 0 0 0 0 0 0 0 0 0 0 0 0 0 0 0 0 0 0 0 2 1 58 20 16 38 51
19 14 18 10 14 4 0 0 0 1 2 7 4 0 0 0 0 0 0 0 0 0 0 0 0 0 0 0 0 0 0 0 0 0 0 0 0 1 0 1 16 0 34 129 46 59 34
15 21 19 16 16 8 3 0 0 0 0 2 7 1 0 0 0 0 0 0 0 0 0 0 0 0 0 0 0 0 0 0 0 0 0 0 0 0 0 0 0 0 0 9 109 88 88
28 22 26 17 16 16 9 0 0 0 0 1 7 4 0 0 0 0 0 0 0 0 0 0 0 0 0 0 0 0 0 0 0 0 0 0 0 0 0 18 0 0 0 0 25 92 52
35 33 29 29 18 14 18 3 0 0 0 0 3 9 0 0 0 0 0 0 0 0 0 0 0 0 0 0 0 0 0 0 0 3 0 0 0 0 11 0 0 0 0 0 0 0 8
55 17 37 27 27 24 19 24 0 0 0 0 3 6 1 0 0 0 0 0 0 0 0 0 0 0 0 0 0 0 0 0 0 0 12 3 0 3 7 5 0 0 0 0 0 1 12
67 70 55 28 12 23 25 22 9 8 0 0 2 5 2 0 0 0 0 0 0 0 0 0 0 0 0 0 0 0 0 0 0 0 10 9 0 1 5 0 0 0 0 0 0 0 1
78 73 75 23 35 29 32 28 10 6 0 0 1 3 1 0 0 0 0 0 0 0 0 0 0 0 0 0 0 0 0 0 0 0 0 0 0 0 4 0 0 0 0 0 0 0 0
69 55 69 79 52 52 37 39 17 18 6 3 0 0 2 9 0 0 0 0 0 0 0 0 0 0 0 0 0 0 0 0 0 0 0 0 0 0 0 0 0 0 0 0 1 0 0
86 70 58 70 61 45 37 32 29 18 19 7 0 4 18 11 0 0 2 0 0 0 0 0 0 0 0 0 0 0 0 0 0 0 0 0 0 0 0 7 0 0 0 0 3 1 0
80 83 80 69 58 58 49 36 29 23 24 8 2 12 11 11 10 0 0 0 0 3 0 0 0 0 0 0 0 0 0 0 0 0 0 0 0 0 0 4 0 10 8 0 1 3 0
58 85 98 81 66 48 51 50 42 36 31 14 1 22 15 7 14 0 11 33 3 0 0 0 0 0 0 0 0 0 0 0 0 0 0 0 0 0 0 0 0 34 12 0 0 1 0
77 115 114 92 80 0 56 77 43 34 31 33 4 12 14 7 6 0 45 67 0 0 0 0 0 0 0 0 0 0 0 0 0 0 0 0 0 0 0 0 0 0 3 0 0 0 2
62 80 127 117 95 81 80 79 69 39 37 48 10 18 13 3 5 8 67 0 0 0 0 0 0 0 0 0 0 0 0 0 0 0 0 31 11 2 2 4 0 4 0 3 12 0 1
24 82 111 90 68 96 99 66 67 55 53 53 48 21 4 0 0 2 33 0 0 0 0 0 0 0 0 0 0 0 0 0 0 0 0 1 20 10 9 0 0 0 12 36 40 0 0
0 79 91 105 78 98 85 86 95 88 48 61 37 16 21 1 3 3 0 0 0 0 0 0 0 0 0 0 0 0 0 0 0 0 3 19 9 0 0 0 1 4 0 0 21 7 0
0 0 78 95 124 122 103 95 95 88 73 57 50 1 42 0 8 0 0 0 0 0 0 0 5 1 0 0 0 0 0 0 0 0 10 8 2 0 0 1 2 19 4 20 61 1 0
0 0 29 111 123 79 91 99 99 76 65 46 27 75 68 10 3 0 0 16 0 0 0 3 0 0 0 0 0 0 0 52 24 20 7 17 9 9 31 4 20 11 1 29 30 10 0
0 0 0 106 132 93 103 105 93 87 85 51 73 48 102 47 0 0 0 0 0 0 0 0 1 0 0 0 0 4 43 49 46 18 34 17 4 0 0 0 0 21 36 25 18 0 0
0 0 0 88 97 91 118 99 70 29 91 31 67 43 21 4 0 1 0 0 0 0 0 3 2 0 2 0 0 0 29 29 63 20 24 0 3 0 0 9 0 5 1 25 15 0 0
0 0 0 0 74 101 130 114 2 14 88 21 56 73 51 14 2 0 0 0 0 0 0 0 0 1 9 0 0 0 39 7 26 25 2 14 0 4 0 0 0 0 0 0 0 17 7
0 0 0 0 85 118 141 94 27 13 9 24 32 29 62 0 2 0 0 0 0 0 0 0 2 0 10 0 22 9 56 37 62 42 30 21 0 0 0 0 0 0 0 0 1 20 7
0 0 0 70 98 130 141 93 89 43 3 77 40 26 60 3 28 0 0 0 0 0 0 10 44 11 16 49 120 147 184 181 163 117 85 7 0 0 0 0 0 0 0 0 0 0 0
0 0 0 89 77 100 112 89 127 35 2 27 15 52 68 7 25 20 1 0 0 0 3 8 46 24 50 104 106 173 117 114 93 118 139 162 11 5 0 0 0 0 0 0 0 0 0
0 1 84 83 89 100 96 96 54 25 0 0 30 54 41 49 15 37 1 0 0 0 7 107 107 103 143 119 115 28 7 0 0 0 9 109 67 23 0 0 0 0 0 0 0 0 0
71 76 77 81 82 84 74 93 36 29 6 2 0 0 45 42 51 32 9 0 0 2 4 123 98 149 160 77 28 0 0 0 0 0 0 0 13 0 0 0 0 0 0 0 0 0 0
74 77 76 80 89 90 75 68 2 46 59 0 12 2 82 59 31 62 14 0 0 2 23 42 82 67 78 42 17 0 0 0 0 0 0 0 0 0 0 0 0 0 0 0 0 0 0
62 69 61 73 92 90 50 9 11 34 100 13 3 0 3 4 23 45 3 0 0 2 56 97 28 32 72 29 31 7 2 0 1 7 0 0 0 0 0 0 0 0 0 0 0 0 0

GFSGBSN_con_mucape_027.txt.gz
CAPE
14 12 14 15 13 9 0 0 0 0 1 4 0 0 0 0 0 0 0 0 0 0 0 0 0 0 0 0 0 0 0 9 0 0 0 0 0 0 0 0 0 3 0 0 53 155 129
7 20 17 15 16 9 0 9 0 0 0 0 1 4 0 0 0 0 0 0 0 0 0 0 0 0 0 0 0 0 0 0 0 0 0 0 0 5 0 5 27 2 4 63 119 126 167
25 28 28 19 15 13 15 4 7 0 0 0 2 4 1 0 0 0 0 0 0 0 0 0 0 0 0 0 0 0 0 0 0 0 0 0 0 3 4 25 14 9 75 88 44 18 46
36 30 29 29 22 22 12 5 0 1 0 0 1 2 4 0 0 0 0 0 0 0 0 0 0 0 0 0 0 0 0 0 0 0 0 0 0 0 8 19 4 11 4 1 64 82 63
40 35 36 23 29 18 24 17 7 0 1 0 0 0 3 1 0 0 0 0 0 0 0 0 0 0 0 0 0 0 0 0 0 0 0 0 0 0 0 30 14 0 0 0 24 103 74
53 42 39 32 16 24 21 19 20 7 0 0 0 0 6 4 0 0 0 0 0 0 0 0 0 0 0 0 0 0 0 0 0 0 0 0 0 0 2 23 3 0 0 0 3 46 103
85 71 51 43 40 28 19 23 17 20 9 0 0 0 3 6 0 0 0 0 0 0 0 0 0 0 0 0 0 0 0 0 0 0 0 0 0 0 16 5 0 0 0 0 0 0 31
46 69 83 54 40 50 24 33 24 16 14 1 0 0 4 9 0 0 0 0 0 0 0 0 0 0 0 0 0 0 0 0 0 0 0 0 7 2 2 0 0 0 0 0 0 0 0
67 54 78 85 75 49 38 24 32 22 13 0 0 0 2 23 7 0 0 0 0 0 0 0 0 0 0 0 0 0 0 0 0 0 0 0 0 1 0 0 0 0 0 0 0 0 0
83 71 49 75 81 76 55 31 24 30 19 1 0 0 5 46 2 0 0 0 0 0 0 0 0 0 0 0 0 0 0 0 0 0 0 0 0 0 0 0 0 0 0 0 0 0 0
63 86 68 61 67 56 50 49 34 28 36 21 0 0 9 17 0 0 0 0 0 0 0 0 0 0 0 0 0 0 0 0 0 0 0 0 0 0 0 0 0 0 0 0 0 0 0
49 38 77 68 53 53 46 55 37 26 41 24 12 0 14 19 11 0 123 0 0 0 0 0 0 0 0 0 0 0 0 0 0 0 0 0 0 0 0 0 0 0 0 0 0 0 0
0 17 34 68 57 65 54 54 49 34 36 29 27 6 14 9 5 0 104 25 16 0 0 0 0 0 0 0 0 0 0 0 0 0 0 0 0 0 0 0 0 0 1 0 0 0 0
0 0 37 37 80 57 70 45 50 48 37 29 30 30 8 15 8 2 74 106 0 0 0 0 0 0 0 0 0 0 0 0 0 0 0 0 0 0 0 0 0 0 0 0 0 0 0
92 0 34 39 51 82 100 61 40 64 55 53 37 44 34 3 25 0 111 0 0 0 0 0 0 0 0 0 0 0 0 0 0 0 0 0 0 0 0 1 13 0 1 0 0 0 0
116 80 53 34 13 70 121 91 43 65 63 52 29 20 33 11 31 9 47 0 0 0 0 0 0 0 0 0 0 0 0 0 0 0 0 0 0 0 0 0 9 35 12 8 4 3 0
121 87 59 40 38 87 60 99 54 85 69 61 11 50 26 31 32 9 0 0 0 0 0 0 0 0 0 0 0 0 0 0 0 0 0 0 0 0 0 0 0 0 0 6 0 0 0
95 91 47 45 42 90 117 94 72 80 86 65 29 0 48 26 35 2 0 0 0 0 0 0 0 0 0 0 0 0 0 0 0 0 0 0 0 0 0 0 0 0 0 2 0 0 0
93 83 41 39 57 113 114 95 53 93 72 1 0 52 72 27 16 0 0 0 0 0 0 0 0 0 0 0 0 0 0 0 0 0 0 0 0 0 0 0 0 0 8 15 0 0 0
141 78 0 0 67 93 116 85 79 104 100 7 5 0 85 87 0 1 0 0 0 0 0 0 0 0 0 0 0 0 0 10 16 0 1 1 0 0 0 0 25 40 63 31 4 0 0
142 63 0 0 0 72 87 87 81 91 109 21 63 22 4 0 0 0 0 0 0 0 0 0 0 0 0 0 0 0 11 2 13 0 8 9 0 10 0 0 0 6 20 26 27 10 0
51 47 0 0 0 0 99 93 87 102 135 24 1 77 75 9 0 0 0 0 0 0 0 0 0 0 0 0 0 0 8 0 13 11 12 2 4 8 5 0 1 0 0 2 0 0 0
116 36 0 0 0 0 94 91 66 114 145 15 18 40 69 0 0 0 0 0 0 0 0 0 0 1 0 0 6 4 2 3 23 10 13 18 4 0 0 0 0 0 0 0 0 0 0
110 0 0 0 0 0 89 41 55 123 47 68 28 20 60 0 0 0 0 0 0 0 0 0 0 1 0 13 3 18 8 22 25 18 10 1 4 6 0 0 0 0 0 0 0 0 0
11 0 0 0 0 21 69 51 67 55 59 8 18 24 10 0 0 0 0 0 0 0 0 0 0 0 17 33 59 71 61 32 40 13 11 1 6 0 0 0 0 0 0 0 0 0 0
0 0 0 0 0 0 40 49 64 87 32 3 8 9 11 17 0 24 2 0 0 0 0 0 0 36 15 28 57 83 67 32 35 36 70 55 71 20 0 0 0 0 0 0 0 0 0
0 0 0 0 0 0 50 63 51 63 74 1 5 19 24 16 27 53 30 0 0 0 0 0 62 18 29 25 43 46 36 23 2 1 8 43 79 9 0 0 0 0 0 0 0 0 0
0 0 0 0 0 65 86 88 88 74 82 4 4 4 2 0 21 41 57 19 0 0 0 0 102 46 40 44 41 48 26 9 1 0 2 0 0 0 0 0 0 0 0 0 0 0 0
0 0 0 37 58 65 79 100 81 76 52 0 1 5 26 24 4 11 13 1 0 0 0 1 0 40 72 44 24 30 16 4 0 0 0 0 0 0 0 0 0 0 0 0 0 0 0

GFSGBSN_con_mucape_030.txt.gz
CAPE
16 11 16 31 23 16 10 1 0 0 0 1 3 8 2 0 0 0 0 0 0 0 0 0 0 0 0 0 0 0 0 0 0 0 0 0 0 0 0 0 15 17 6 0 25 160 252
20 10 25 23 30 16 11 13 19 6 0 0 0 1 8 1 0 0 0 0 0 0 0 0 0 0 0 0 0 0 0 0 0 0 0 0 0 0 0 18 16 2 13 48 90 195 268
17 31 28 24 26 31 21 19 17 13 3 0 0 0 5 6 1 0 0 0 0 0 0 0 0 0 0 0 0 0 0 0 0 0 0 0 0 0 0 10 6 1 41 98 117 75 119
33 32 28 32 22 17 17 18 13 9 12 0 0 1 2 4 4 0 0 0 0 0 0 0 0 0 0 0 0 0 0 0 0 0 0 0 0 0 3 12 8 11 4 2 49 46 88
57 15 23 27 36 26 26 8 20 13 6 0 0 0 0 5 7 0 0 0 0 0 0 0 0 0 0 0 0 0 0 0 0 0 0 0 0 0 1 22 6 0 3 1 14 46 28
38 32 38 38 28 33 35 33 9 17 13 3 0 0 3 5 17 2 0 0 0 0 0 0 0 0 0 0 0 0 0 0 0 0 0 0 0 0 0 22 6 0 0 2 1 31 52
42 54 34 61 41 42 32 39 39 32 17 16 4 0 0 2 14 1 0 0 0 0 0 0 0 0 0 0 0 0 0 0 0 0 0 0 0 0 0 14 14 5 0 0 0 0 24
97 65 60 32 59 43 43 47 27 32 22 22 19 0 0 10 10 5 0 0 0 0 0 0 0 0 0 0 0 0 0 0 0 0 0 0 0 0 0 0 6 2 0 0 0 0 0
77 86 90 69 45 41 59 49 41 24 24 23 15 0 0 7 7 2 0 0 0 0 0 0 0 0 0 0 0 0 0 0 0 0 0 0 0 0 0 15 0 0 0 0 0 0 0
69 75 80 86 88 77 59 44 40 37 24 24 11 0 0 12 2 0 0 0 0 0 0 0 0 0 0 0 0 0 0 0 0 0 0 0 0 0 0 0 1 0 0 0 0 0 0
64 74 64 73 87 81 54 48 47 38 31 27 17 6 1 10 0 0 0 0 0 0 0 0 0 0 0 0 0 0 0 0 0 0 0 0 0 0 0 0 0 0 0 0 0 0 0
61 69 64 62 67 75 88 54 41 38 33 23 23 15 3 17 15 0 1 0 0 0 0 0 0 0 0 0 0 0 0 0 0 0 0 0 0 0 0 0 0 0 0 0 0 0 0
71 82 75 56 50 79 86 73 60 31 42 25 32 22 22 8 5 0 7 23 30 0 0 0 0 0 0 0 0 0 0 0 0 0 0 0 0 0 0 0 0 0 0 0 0 0 0
101 80 92 80 58 54 68 76 88 38 53 31 34 20 23 33 22 1 5 55 0 0 0 0 0 0 0 0 0 0 0 0 0 0 0 0 0 0 0 0 0 0 0 0 0 0 0
88 101 81 90 79 63 42 52 78 28 48 40 46 3 26 4 10 14 31 0 0 0 0 0 0 0 0 0 0 0 0 0 0 0 0 0 0 0 0 0 0 0 0 0 0 0 0
92 89 92 79 74 70 43 51 64 28 56 66 17 21 0 44 9 54 24 0 0 0 0 1 0 0 0 0 0 0 0 0 0 0 0 0 0 1 1 4 0 0 0 0 0 0 0
101 95 87 95 67 55 50 35 81 104 12 88 56 0 0 55 88 31 0 0 0 0 0 4 0 0 0 0 0 0 0 0 0 0 0 0 0 0 0 0 0 0 0 0 0 0 0
120 105 94 104 86 56 54 26 54 64 88 45 6 0 7 51 37 15 0 0 1 0 5 0 0 0 0 0 0 0 0 0 0 0 0 0 0 0 0 0 0 0 0 0 0 0 0
168 155 126 101 102 48 43 26 59 98 89 1 0 4 86 10 0 0 0 0 0 0 0 0 0 0 0 0 0 0 0 0 0 0 0 0 0 0 0 0 0 0 0 0 0 0 0
139 172 179 136 130 43 28 35 56 118 83 2 28 0 91 64 0 0 0 0 0 0 0 0 0 0 0 0 0 0 0 0 0 0 0 1 0 0 0 0 3 1 0 0 1 0 0
154 148 165 98 138 37 0 54 82 81 40 0 66 0 43 0 0 0 0 0 0 0 0 0 0 0 0 0 2 0 0 0 0 0 0 0 0 0 0 0 0 0 0 0 1 0 0
171 178 155 141 131 25 0 76 58 38 27 0 0 20 90 27 0 0 0 0 0 0 0 0 0 0 0 9 5 1 0 0 0 3 3 6 7 0 0 2 1 0 0 0 0 0 0
150 157 158 179 152 3 30 87 3 15 82 0 5 19 53 0 0 0 0 0 0 0 0 0 0 0 0 8 16 12 4 1 2 9 2 0 2 16 19 6 4 0 0 0 0 0 0
209 183 193 135 116 3 32 65 0 16 21 0 0 4 46 0 0 0 0 0 0 0 0 0 0 0 0 13 38 23 39 12 2 4 18 0 16 21 15 16 1 0 0 0 0 0 0
233 244 278 100 85 0 0 53 1 0 9 0 0 14 55 0 0 0 0 0 0 0 0 0 0 0 0 13 37 31 30 36 20 2 0 8 17 20 19 2 0 0 0 0 0 0 0
163 162 256 100 0 0 0 37 43 43 41 0 3 17 32 21 0 22 9 0 0 0 0 0 0 0 0 7 15 0 5 42 42 5 6 10 26 18 0 0 0 0 0 0 0 0 0
69 34 82 8 0 0 0 0 51 57 88 2 2 19 37 2 58 38 7 0 0 0 0 0 0 22 1 2 12 0 0 27 35 19 16 5 2 2 6 0 0 0 0 0 0 0 0
27 1 0 0 0 0 0 0 56 67 88 17 1 46 12 0 49 25 40 11 0 0 0 0 35 11 3 0 2 1 10 29 20 22 19 23 38 35 23 33 1 0 0 0 0 0 0
0 0 0 0 0 0 0 0 64 89 100 4 0 17 12 0 29 41 29 30 0 0 0 0 0 0 0 8 7 23 20 9 0 0 0 1 1 5 15 2 0 0 0 0 0 0 0

GFSGBSN_con_mucape_033.txt.gz
CAPE
7 16 14 13 6 2 10 13 13 6 2 0 0 0 8 14 8 0 0 0 0 0 0 0 0 0 0 0 0 0 0 0 0 0 0 0 0 0 0 0 4 1 0 1 17 85 302
23 25 22 30 21 6 6 19 17 11 9 0 0 0 0 3 7 8 1 0 0 0 0 0 0 0 0 0 0 0 0 0 0 0 0 0 0 0 0 0 3 0 0 23 46 176 298
47 35 38 33 31 24 5 4 11 18 14 3 0 0 0 6 8 8 4 0 0 0 0 0 0 0 0 0 0 0 0 0 0 0 0 0 0 0 0 0 1 0 29 45 81 192 285
28 18 45 38 31 29 27 6 3 14 18 16 4 0 1 0 4 4 8 0 0 0 0 0 0 0 0 0 0 0 0 0 0 0 0 0 0 0 0 0 0 1 0 0 2 19 98
31 27 45 31 36 33 28 32 23 4 22 22 18 1 0 1 3 6 7 0 0 0 0 0 0 0 0 0 0 0 0 0 0 0 0 0 0 0 0 0 0 0 0 3 29 90 97
37 47 35 59 46 48 35 35 28 26 7 25 22 12 1 0 0 4 7 0 0 0 0 0 0 0 0 0 0 0 0 0 0 0 0 0 0 0 0 0 0 2 0 4 45 82 70
19 28 37 52 55 74 51 40 35 28 24 24 21 22 12 0 0 6 3 0 0 0 0 0 0 0 0 0 0 0 0 0 0 0 0 0 0 0 0 0 8 14 6 1 2 0 55
73 54 18 35 68 71 54 50 41 33 27 25 19 13 8 0 2 9 3 0 0 0 0 0 0 0 0 0 0 0 0 0 0 0 0 0 0 0 0 0 0 1 7 4 0 0 0
55 66 68 52 29 59 89 58 44 34 33 21 21 17 3 0 3 2 0 0 0 0 0 0 0 0 0 0 0 0 0 0 0 0 0 0 0 0 0 2 6 0 0 1 0 0 0
60 67 68 66 68 63 64 88 62 48 33 27 14 20 4 0 1 0 0 0 0 0 0 0 0 0 0 0 0 0 0 0 0 0 0 0 0 0 0 0 0 0 0 3 0 0 0
61 54 63 66 80 69 56 53 79 84 37 34 25 20 8 0 0 0 0 0 0 0 0 0 0 0 0 0 0 0 0 0 0 0 0 0 0 0 0 0 1 0 0 1 0 0 0
0 83 71 62 70 70 62 41 45 73 58 37 30 24 18 8 2 0 1 0 0 0 0 0 0 0 0 0 0 0 0 0 0 0 0 0 0 0 0 0 0 0 0 0 0 0 0
101 99 95 80 71 72 79 59 45 62 46 53 48 30 23 31 10 0 1 7 10 0 0 0 0 0 0 0 0 0 0 0 0 0 0 0 0 0 0 0 0 0 0 0 0 0 0
90 91 88 98 93 78 75 72 45 57 93 55 58 39 29 15 36 4 17 39 0 0 0 0 0 0 0 0 0 0 0 0 0 0 0 0 0 0 0 0 0 0 0 1 0 0 0
90 93 92 83 89 81 74 69 60 40 72 60 9 38 42 23 8 4 47 0 0 0 0 0 0 0 0 0 0 0 0 0 0 0 0 0 0 0 0 0 0 0 0 0 0 0 0
95 88 87 84 79 79 77 69 62 48 49 108 7 3 0 31 8 14 20 0 0 0 0 0 0 0 0 0 0 0 0 0 0 0 0 0 0 0 0 0 0 0 0 1 3 0 0
101 95 85 73 79 59 66 72 72 37 52 98 20 0 3 67 86 59 1 0 0 0 0 0 0 0 0 0 0 0 0 0 0 0 0 0 0 0 0 0 0 0 0 0 0 0 0
86 87 108 84 64 76 63 72 55 52 65 78 0 0 1 39 42 22 0 0 0 0 0 0 1 5 0 10 0 0 0 0 0 0 0 0 0 0 0 0 0 0 0 0 7 0 0
93 136 125 131 92 73 80 72 44 49 85 8 0 6 36 1 5 0 0 0 0 0 0 0 0 5 27 25 0 0 0 0 0 0 0 0 0 0 0 0 0 0 0 0 0 0 0
77 147 162 162 166 115 86 70 3 38 89 18 0 0 87 53 0 2 0 0 0 0 0 0 0 3 23 32 18 0 0 0 0 0 0 0 0 0 0 0 0 0 0 0 0 0 0
90 128 69 65 82 137 119 71 0 5 95 2 1 0 39 0 5 17 0 0 0 0 0 0 0 2 6 6 40 5 0 0 0 0 0 1 0 0 0 0 0 0 0 0 0 0 1
159 143 126 28 0 76 166 59 24 0 91 4 0 0 25 2 0 0 0 0 0 0 0 0 0 0 6 19 36 29 6 0 0 0 0 1 0 0 0 0 0 0 0 0 0 0 0
173 85 76 116 87 84 147 59 0 20 67 0 0 0 0 0 4 0 0 0 0 5 0 0 0 0 7 1 60 36 19 0 1 1 1 3 0 0 0 0 0 0 0 1 0 0 0
141 82 71 156 161 104 24 8 0 0 16 0 0 0 10 0 12 0 0 0 0 0 0 0 0 0 0 49 29 27 17 4 0 10 7 14 17 10 15 4 0 0 0 0 0 0 0
129 85 111 156 158 133 0 8 0 0 80 0 0 8 67 0 48 17 0 0 37 57 12 0 0 0 3 7 0 19 26 7 7 4 26 31 18 7 8 0 0 0 0 1 0 0 0
185 143 167 140 160 79 3 6 0 0 63 0 0 4 83 43 10 55 21 1 0 0 20 8 0 4 1 39 14 0 0 2 5 17 26 8 25 33 18 0 0 0 0 0 0 0 0
160 201 128 191 89 63 59 2 0 0 0 0 0 5 37 41 24 82 61 6 12 7 2 7 18 1 4 20 24 0 0 4 0 2 12 4 2 4 20 2 0 0 0 0 0 0 0
123 42 116 95 57 43 18 0 1 0 0 0 0 0 2 9 12 2 31 35 13 2 0 6 10 11 1 0 0 0 0 1 3 10 10 2 1 0 11 12 0 0 0 0 0 0 0
101 116 77 48 32 55 0 0 0 0 0 0 0 0 0 0 2 1 32 37 9 3 0 0 0 0 0 0 0 14 2 0 0 0 5 7 0 0 0 0 1 0 0 0 0 0 0

GFSGBSN_con_mucape_036.txt.gz
CAPE
36 23 21 19 23 18 6 12 23 16 13 11 0 0 0 0 3 2 8 0 0 0 0 0 0 0 0 0 0 0 0 0 0 0 0 0 0 0 0 0 0 0 3 0 12 6 367
20 37 37 33 29 19 16 16 16 18 16 14 10 0 0 0 0 5 6 2 0 0 0 0 0 0 0 0 0 0 0 0 0 0 0 0 0 0 0 0 1 0 14 147 37 314 531
30 26 41 36 45 27 23 26 19 15 20 21 17 12 1 0 0 1 2 4 1 0 0 0 0 0 0 0 0 0 0 0 0 0 0 0 0 0 0 0 0 0 123 80 180 384 473
31 35 30 38 44 42 25 25 27 22 16 19 24 16 6 0 0 2 0 2 0 0 0 0 0 0 0 0 0 0 0 0 0 0 0 0 0 0 0 0 0 10 49 15 18 143 211
21 25 37 51 47 41 48 26 26 24 22 15 20 18 10 0 0 0 0 0 0 0 0 0 0 0 0 0 0 0 0 0 0 0 0 0 0 0 0 0 8 11 32 19 72 108 244
27 21 27 43 55 57 62 43 42 30 24 16 10 7 14 8 0 0 0 0 0 0 0 0 0 0 0 0 0 0 0 0 0 0 0 0 0 0 0 0 47 38 38 58 154 262 225
25 39 46 40 47 40 32 52 59 39 29 23 15 7 10 8 0 0 0 0 0 0 0 0 0 0 0 0 0 0 0 0 0 0 0 0 0 0 0 0 0 5 26 47 45 18 98
69 57 28 61 61 51 11 37 50 45 34 33 22 10 10 9 0 0 3 1 0 0 0 0 0 0 0 0 0 0 0 0 0 0 0 0 0 0 0 0 0 18 17 46 19 0 5
61 76 64 65 58 79 46 44 35 43 2 42 24 16 14 8 0 4 8 0 0 0 0 0 0 0 0 0 0 0 0 0 0 0 0 0 0 0 0 3 10 22 23 14 8 0 0
52 50 60 61 70 76 75 68 52 41 27 15 34 21 20 1 1 6 1 0 0 0 0 0 0 0 0 0 0 0 0 0 0 0 0 0 0 0 0 0 5 15 0 0 3 0 28
0 0 59 76 83 70 63 64 59 46 42 31 36 32 23 18 9 11 0 0 0 11 0 0 0 0 0 0 0 0 0 0 0 0 0 0 0 0 0 0 0 7 0 6 11 34 32
0 0 0 48 75 72 76 71 70 47 35 32 40 38 28 45 16 2 0 2 6 34 0 0 0 0 0 0 0 0 0 0 0 0 0 3 0 0 0 0 0 0 0 1 13 43 64
0 0 0 0 0 82 80 80 74 65 42 40 58 34 47 44 9 1 3 101 104 0 0 0 0 0 0 0 0 0 0 0 0 0 0 0 0 0 0 0 0 0 12 93 49 69 72
0 0 0 78 79 0 80 70 63 77 46 44 47 55 37 25 10 9 55 164 0 0 0 0 0 0 0 0 0 0 0 0 0 0 1 0 0 0 0 0 1 0 44 81 18 6 31
74 63 5 0 75 74 89 77 70 75 56 47 70 19 117 27 3 9 105 0 0 0 0 0 0 0 0 0 0 0 0 0 0 0 0 0 1 0 0 0 0 1 17 18 96 36 29
73 75 61 63 73 71 73 86 74 86 71 61 92 25 73 74 19 15 38 17 0 0 0 0 0 0 0 0 0 0 0 0 0 0 0 0 0 0 0 0 0 9 8 49 105 60 29
75 62 60 57 65 70 73 88 77 83 93 101 131 0 0 100 125 19 20 0 0 0 1 0 0 0 0 0 0 0 0 0 0 0 0 0 4 29 13 13 18 19 32 37 84 93 60
5 3 68 72 60 62 74 74 76 78 74 117 0 0 98 82 72 15 36 0 0 0 30 14 26 9 0 0 0 0 0 0 0 0 0 0 0 45 15 2 1 19 22 80 102 38 23
0 0 0 70 57 65 65 72 68 65 68 149 0 0 158 71 0 30 1 0 25 20 8 77 15 47 65 4 0 0 0 0 0 0 0 0 0 0 12 0 0 1 0 0 13 4 48
2 3 44 10 69 83 88 75 63 55 63 89 0 0 25 58 17 64 0 0 14 49 44 54 31 16 84 86 8 0 0 0 0 0 0 8 3 0 0 2 7 14 3 9 20 101 59
88 95 74 66 69 58 98 86 78 53 0 0 0 0 0 0 26 6 10 0 0 0 23 72 92 54 68 17 32 0 5 19 0 0 0 13 5 3 2 0 0 0 0 0 2 5 91
83 99 93 72 80 71 70 109 73 36 0 1 0 0 0 0 0 0 5 30 2 5 22 6 102 85 58 76 94 97 63 70 45 0 0 10 2 7 4 0 0 0 0 0 0 0 3
81 79 98 113 89 111 102 92 114 9 0 0 56 9 88 0 0 41 0 25 4 11 22 2 11 61 42 79 108 59 32 4 16 58 8 32 31 7 0 4 0 0 0 0 11 12 57
149 173 166 126 140 124 88 54 84 32 0 0 0 30 0 0 83 0 0 20 55 30 2 4 24 44 21 69 37 53 20 2 33 21 33 34 15 50 20 2 22 0 7 26 24 21 33
76 221 262 182 177 119 142 102 83 2 0 0 59 67 0 0 0 18 6 15 49 99 96 12 8 52 64 49 41 17 48 39 27 56 34 50 56 39 112 17 0 0 0 1 40 37 39
59 128 229 171 150 60 60 87 85 47 0 0 5 58 112 91 0 39 74 23 55 97 128 54 33 259 174 177 76 0 0 0 69 48 6 27 27 165 0 0 22 0 3 0 2 58 89
41 64 153 121 64 33 5 26 40 0 0 0 71 143 136 21 45 64 97 90 49 83 113 85 127 150 87 128 315 122 0 3 5 81 30 22 34 59 73 85 7 0 0 0 36 168 47
124 109 62 46 50 61 42 0 16 0 0 0 0 49 164 80 61 97 113 100 125 150 158 89 313 218 167 93 146 156 169 59 27 0 20 48 87 39 59 100 24 0 0 16 153 17 0
56 51 41 48 50 49 20 30 3 0 0 0 0 44 92 154 105 9 6 11 24 93 138 190 0 11 9 37 187 202 194 13 134 42 18 51 77 134 82 48 90 0 25 0 8 0 0

GFSGBSN_con_mucape_039.txt.gz
CAPE
15 7 7 31 25 17 19 21 24 21 21 21 16 8 0 0 0 0 0 1 0 0 0 0 0 0 0 0 0 0 0 0 0 0 0 0 0 0 1 0 1 1 19 8 23 20 76
22 19 13 13 11 31 19 26 27 18 17 18 24 17 12 0 0 0 0 1 0 0 0 0 0 0 0 0 0 0 0 0 0 0 0 0 0 0 0 0 0 1 1 65 39 112 425
20 22 24 37 29 14 3 38 24 23 21 18 19 21 16 8 0 0 0 0 0 0 0 0 0 0 0 0 0 0 0 0 0 0 0 0 0 0 0 0 0 0 4 53 75 155 271
20 20 21 41 48 29 21 19 37 26 24 24 19 19 15 13 0 0 0 0 0 0 0 0 0 0 0 0 0 0 0 0 0 0 0 0 0 0 0 0 0 0 9 91 26 29 103
20 24 22 35 39 50 47 34 32 33 23 25 21 13 14 12 4 0 0 0 0 0 0 0 0 0 0 0 0 0 0 0 0 0 0 0 0 0 0 0 24 6 28 82 30 0 137
18 38 42 47 34 38 48 59 48 33 47 26 23 17 13 12 8 0 0 0 0 0 0 0 0 0 0 0 0 0 0 0 0 0 0 0 0 0 0 16 21 36 47 48 105 58 60
25 23 24 39 43 50 23 36 45 38 22 35 27 21 13 13 11 0 0 0 0 0 0 0 0 0 0 0 0 0 0 0 0 0 0 0 0 1 9 12 2 17 26 36 17 74 52
65 43 39 49 52 41 29 46 34 38 38 43 40 24 15 11 11 0 6 0 0 0 0 0 0 0 0 0 0 0 0 0 0 0 0 1 0 0 14 0 0 28 43 38 20 0 0
62 64 57 53 70 71 51 49 54 38 31 38 22 36 23 11 10 0 0 0 0 0 0 0 0 0 0 0 0 0 0 0 0 0 0 1 10 1 0 0 0 35 50 45 30 12 0
50 59 64 60 70 64 71 62 74 62 41 30 7 4 21 10 0 0 0 0 0 0 0 0 0 0 0 0 0 0 0 0 0 0 0 0 2 0 0 1 8 47 19 14 5 11 43
52 0 0 0 0 0 0 64 50 64 56 45 39 8 27 3 6 6 57 3 0 84 0 0 0 0 0 0 0 0 0 0 0 0 0 0 0 0 0 3 27 29 29 20 41 80 57
0 0 0 52 0 0 0 0 67 58 58 54 67 42 14 35 24 0 30 51 194 34 0 0 0 0 0 0 0 0 0 0 0 0 0 0 1 0 0 9 10 26 46 49 67 109 121
0 0 0 71 64 0 19 9 2 77 70 55 44 70 67 56 29 0 36 123 32 0 0 0 0 0 0 0 0 0 0 0 0 0 0 0 3 0 0 9 1 15 76 100 121 134 139
0 0 0 0 56 59 61 77 77 76 85 67 48 75 50 37 53 16 36 95 0 0 0 0 0 0 0 0 0 0 0 0 0 0 0 0 0 0 0 1 38 17 96 146 41 216 155
65 70 65 60 58 60 59 77 83 69 61 57 51 71 58 51 82 67 55 0 0 0 0 0 0 0 0 0 0 0 0 0 0 0 0 0 9 5 0 0 2 44 72 108 75 125 175
0 15 66 52 48 0 54 69 73 61 53 60 99 56 50 33 140 113 26 0 0 0 0 0 0 0 2 0 0 0 0 0 0 0 3 3 26 2 0 0 0 4 75 121 115 99 142
0 0 0 0 0 0 35 59 70 72 62 55 122 0 20 48 216 100 3 31 0 0 0 0 0 0 0 1 0 0 0 0 0 0 0 6 1 29 24 0 13 0 76 88 121 148 150
0 0 0 0 0 17 59 54 67 70 55 44 0 0 94 94 5 68 0 14 0 0 0 6 21 23 2 0 13 0 0 2 0 0 0 0 17 32 23 9 1 35 28 98 278 127 152
0 0 40 68 61 74 68 56 67 69 60 0 0 0 197 149 0 0 0 8 0 0 1 5 17 70 80 43 0 26 5 2 0 0 0 17 47 54 23 43 31 42 58 65 104 146 101
0 0 0 37 23 8 37 61 65 57 63 0 0 0 40 82 7 0 0 0 0 0 0 12 28 45 42 31 61 4 34 21 21 0 0 64 17 1 6 7 36 17 1 35 60 226 105
0 0 0 0 0 46 27 72 75 43 49 0 0 0 0 0 0 17 0 0 1 4 32 17 35 32 64 2 33 49 47 31 13 2 8 36 99 19 5 14 29 38 34 35 55 62 119
57 48 50 59 60 73 61 31 59 57 0 0 0 0 38 1 0 0 0 0 0 1 13 68 34 35 106 118 98 107 32 61 25 0 4 47 53 49 6 14 22 20 15 15 22 32 25
34 0 0 65 72 87 87 74 34 6 15 0 0 40 90 6 0 21 53 0 0 5 28 32 29 87 148 60 6 37 17 5 15 48 42 49 91 86 1 15 33 39 6 12 12 13 21
47 17 42 67 70 87 97 88 61 75 13 0 0 11 122 0 67 25 0 0 0 9 30 30 80 142 120 142 44 2 5 14 6 7 39 82 93 181 115 40 0 0 1 5 4 0 21
68 112 166 170 84 73 76 86 74 0 24 0 0 108 174 256 38 1 0 30 18 32 72 95 71 91 119 195 49 3 0 0 0 2 1 30 194 164 154 93 4 0 0 15 24 2 15
128 197 232 274 214 93 40 80 61 1 18 0 33 164 227 211 113 29 63 47 40 46 157 52 150 214 207 210 128 18 0 0 0 0 0 2 266 285 116 0 0 0 5 19 34 7 5
114 101 120 193 176 147 19 77 63 12 2 0 25 157 287 97 85 98 99 52 16 65 102 196 162 479 417 343 221 55 0 31 0 16 0 9 86 171 178 101 8 0 25 54 101 40 88
10 36 105 145 0 70 57 76 17 0 36 7 11 291 358 111 95 3 94 124 51 135 162 177 347 318 307 366 239 52 214 92 0 0 92 0 81 142 177 146 80 2 19 41 116 173 110
28 8 57 41 53 61 77 66 31 35 0 0 0 255 202 154 128 136 144 105 106 53 168 315 184 144 161 140 216 90 402 394 98 0 52 0 12 201 174 134 122 122 151 92 88 61 139

GFSGBSN_con_mucape_042.txt.gz
CAPE
17 20 14 6 8 3 31 26 30 22 13 11 19 16 15 5 0 0 0 0 0 0 1 0 0 0 0 0 0 0 0 0 0 0 0 0 0 0 0 2 0 0 0 0 3 0 0
0 0 6 22 15 0 0 7 20 23 20 20 9 19 18 20 7 2 0 0 0 0 0 0 0 0 0 0 0 0 0 0 0 0 0 0 0 0 0 0 0 1 0 0 7 0 3
19 18 35 36 39 31 6 10 9 23 29 23 24 19 14 19 16 8 0 0 0 0 0 0 0 0 0 0 0 0 0 0 0 0 0 0 0 0 0 0 0 0 0 0 6 17 61
29 23 23 37 36 32 37 36 25 20 34 36 26 23 16 12 13 10 0 0 0 0 0 0 0 0 0 0 0 0 0 0 0 0 0 0 0 0 0 0 0 0 0 0 11 40 21
22 29 30 47 42 33 29 35 39 35 34 37 34 22 18 13 8 9 0 0 0 0 1 0 0 0 0 0 0 0 0 0 0 0 0 0 0 0 0 0 0 0 0 8 42 4 43
22 29 41 45 39 45 42 39 37 39 43 35 42 36 19 18 14 5 0 0 0 0 0 0 0 0 0 0 0 0 0 0 0 0 0 0 0 0 0 0 0 0 5 3 50 38 17
22 23 23 41 47 48 26 40 44 39 38 39 33 29 34 21 20 6 0 0 0 2 0 0 0 0 0 0 0 0 0 0 0 0 0 0 0 0 0 0 0 0 0 6 60 43 37
52 31 31 29 60 64 36 48 32 47 42 44 43 52 41 29 18 8 1 0 0 0 0 0 0 0 0 0 0 0 0 0 0 0 0 0 0 0 0 0 0 0 0 12 8 21 0
70 65 41 46 53 69 60 72 64 43 51 29 35 39 38 29 16 0 0 0 0 1 1 0 0 0 0 0 0 0 0 0 0 0 0 0 0 2 0 0 0 0 0 3 28 3 7
60 57 61 47 55 65 62 70 66 60 61 50 30 30 12 6 0 0 0 0 0 0 0 0 0 0 0 0 0 0 0 0 0 0 0 0 0 0 0 0 0 0 0 3 8 12 3
52 49 53 64 71 73 78 79 82 82 76 56 41 40 4 6 7 1 45 30 35 118 0 0 0 0 0 0 0 0 0 0 0 0 0 0 0 0 0 0 0 0 0 23 2 3 68
54 57 58 62 63 64 10 0 0 61 91 85 69 60 31 12 23 0 43 62 105 0 0 0 0 0 0 0 0 0 0 0 0 0 0 0 0 0 0 0 0 11 6 24 11 0 43
53 65 73 64 55 55 56 59 27 56 65 86 75 74 63 9 17 0 20 75 43 0 0 0 0 0 0 0 0 0 0 0 0 0 0 0 0 3 0 0 0 0 11 14 15 68 108
62 0 41 75 73 67 53 54 53 52 70 74 56 59 44 14 1 22 116 161 0 0 0 0 0 0 0 0 0 0 0 0 0 0 0 0 0 0 0 0 5 0 0 33 19 0 64
0 0 0 0 74 74 70 64 61 62 67 62 50 82 0 86 40 23 32 0 0 0 0 0 0 0 0 0 0 0 0 0 0 0 0 0 1 1 0 0 0 15 2 16 29 0 0
0 0 0 0 0 40 62 59 64 68 54 51 102 0 0 64 102 77 59 0 0 0 0 0 0 0 1 0 0 0 0 0 0 0 0 2 0 5 0 2 0 0 5 105 70 60 60
0 0 0 0 0 0 32 69 69 67 63 54 0 0 28 48 156 22 0 0 0 0 0 0 0 0 0 13 12 0 0 0 0 0 0 3 2 0 12 4 0 0 0 24 102 125 125
0 0 0 0 0 0 39 85 82 65 57 58 0 0 57 91 0 0 0 0 0 0 0 0 0 0 0 11 9 8 15 4 0 1 0 1 28 0 0 0 0 0 2 13 131 61 169
0 0 0 0 0 0 0 45 72 60 61 7 0 0 81 74 0 0 0 0 0 0 0 0 0 0 17 20 59 8 17 57 12 9 1 33 12 0 0 11 25 1 1 20 57 145 151
0 0 0 0 33 40 73 66 71 62 60 4 0 0 0 25 0 0 0 0 0 0 1 0 1 16 4 6 24 35 65 14 109 13 0 66 46 0 0 1 43 30 24 38 100 99 34
0 0 0 0 0 2 7 72 56 59 56 0 0 0 0 0 0 0 0 0 0 0 0 0 13 34 59 59 30 9 40 54 23 18 10 84 22 14 37 45 31 50 9 0 20 59 83
0 0 0 0 0 23 60 48 45 52 55 0 0 0 0 0 0 0 0 0 0 0 0 0 0 0 64 81 84 31 3 1 21 38 16 71 1 65 86 68 28 8 17 29 2 4 15
20 80 73 72 74 83 88 62 8 9 35 1 0 0 67 0 0 0 0 0 0 6 19 0 0 3 64 36 72 300 53 3 9 10 69 68 77 117 0 110 58 1 3 11 8 14 10
63 28 30 29 28 71 79 73 28 2 0 3 0 5 26 0 38 0 0 0 0 12 21 12 18 77 68 269 429 155 46 8 7 1 48 76 94 116 0 109 0 0 2 0 0 0 0
0 11 75 72 71 76 44 77 71 58 54 0 4 0 22 94 33 30 0 0 28 52 52 17 27 0 169 481 500 82 4 0 0 0 12 21 80 105 0 0 4 0 0 0 0 0 1
39 54 72 68 58 47 52 63 80 81 107 56 0 15 46 82 111 0 38 4 17 77 75 36 8 131 356 232 8 18 0 0 0 0 0 2 22 38 135 0 0 0 0 0 24 6 5
46 47 43 63 184 116 93 57 70 86 119 112 12 63 60 66 124 229 83 81 52 44 114 20 75 137 361 120 122 48 54 0 0 0 0 0 9 3 99 81 75 4 0 3 11 33 114
34 39 41 52 115 145 181 110 68 71 109 73 19 54 101 124 126 13 54 321 175 224 156 20 185 270 242 76 141 132 101 7 0 3 119 1 0 53 121 91 5 30 63 68 181 142 296
20 12 34 43 52 127 183 149 91 64 85 44 70 99 195 398 243 207 66 78 4 27 240 200 79 118 74 243 20 212 278 332 78 1 14 37 0 0 52 57 3 16 54 199 336 340 394

GFSGBSN_con_mucape_045.txt.gz
CAPE
0 1 0 0 0 11 10 5 15 30 28 24 6 15 18 14 17 13 7 0 0 0 0 0 1 3 0 0 0 0 0 0 0 0 0 0 0 0 0 0 0 0 0 0 0 0 0
0 1 17 0 0 0 0 3 22 9 7 22 24 13 10 17 12 13 12 3 0 0 0 0 1 2 0 0 0 0 0 0 0 0 0 0 0 0 0 0 0 0 0 0 0 0 1
0 0 0 0 15 0 0 29 0 0 22 20 23 22 19 11 14 7 7 3 0 0 0 1 2 2 0 0 0 0 0 0 0 0 0 0 0 0 0 0 0 0 0 0 0 0 0
19 18 15 0 29 30 34 33 0 34 34 37 35 28 18 18 13 5 0 0 0 0 0 0 2 0 0 0 0 0 0 0 0 0 0 0 0 0 0 0 0 0 0 0 0 0 7
23 20 19 38 41 39 44 43 33 38 38 33 44 28 20 15 7 4 0 0 0 0 0 0 0 0 0 0 0 0 0 0 0 0 0 0 0 0 0 0 0 0 0 0 0 2 2
25 26 32 48 43 46 49 49 44 39 37 40 44 43 16 13 13 5 0 0 0 0 0 0 0 0 0 0 0 0 0 0 0 0 0 0 0 0 0 0 0 0 0 0 2 1 27
21 25 31 36 54 40 33 40 45 40 48 43 48 39 44 24 26 15 0 0 0 0 0 0 0 0 0 0 0 0 0 0 0 0 0 0 0 0 0 0 0 0 0 0 0 3 16
35 38 37 41 48 45 42 56 56 52 47 59 46 36 44 39 24 16 0 0 0 1 0 0 0 0 0 0 0 0 0 0 0 0 0 0 0 0 0 0 0 0 0 0 0 5 6
63 49 47 54 54 55 56 63 57 53 55 52 55 47 42 17 10 0 0 0 0 0 0 0 0 0 0 0 0 0 0 0 0 0 0 0 0 0 0 0 0 0 0 0 0 8 5
62 60 59 54 60 65 62 67 61 60 59 54 54 58 40 8 0 0 0 0 0 20 0 0 0 0 0 0 0 0 0 0 0 0 0 0 0 0 0 0 0 0 0 0 0 1 0
63 72 77 85 78 67 61 72 70 77 65 61 57 55 49 23 0 0 9 1 43 76 0 0 0 0 0 0 0 0 0 0 0 0 0 0 0 0 0 0 0 0 0 0 0 0 0
72 72 81 70 83 83 59 60 67 71 63 69 64 66 62 12 0 0 39 75 33 0 0 0 0 0 0 0 0 0 0 0 0 0 0 0 0 0 0 0 0 0 1 0 0 1 0
52 58 66 72 86 85 81 59 53 58 66 61 76 66 40 0 0 0 33 71 6 0 0 0 0 0 0 0 0 0 0 0 0 0 0 0 0 0 0 0 0 0 1 0 0 0 0
59 62 59 73 68 66 73 64 66 64 62 51 58 50 51 2 0 2 4 32 0 0 0 0 0 0 0 0 0 0 0 0 0 0 0 0 0 0 0 0 0 0 0 0 0 0 0
79 72 68 66 81 79 77 78 66 64 59 50 51 36 0 7 0 13 34 0 0 0 0 0 0 0 0 0 0 0 0 0 0 0 0 0 0 0 0 0 0 0 0 0 4 1 0
76 66 70 42 0 13 0 32 64 62 55 48 41 0 0 1 2 54 23 0 0 0 0 0 0 0 0 20 2 0 0 0 0 0 0 0 0 0 0 0 0 0 0 17 19 0 0
78 0 0 0 0 0 0 0 76 66 55 49 3 0 0 0 43 0 0 0 0 0 0 0 0 0 0 9 6 3 0 0 0 0 0 0 0 0 0 0 0 0 0 0 16 6 10
0 0 0 0 0 0 0 0 0 64 53 43 0 0 0 0 0 0 0 0 0 0 0 0 0 0 0 1 18 1 0 9 0 0 0 0 0 0 0 0 0 0 0 0 0 1 46
0 0 0 0 0 0 0 0 0 75 68 25 0 0 2 0 0 0 0 0 0 0 0 0 0 0 0 0 0 1 34 2 11 13 0 0 0 0 0 0 2 0 0 0 0 0 17
0 0 0 0 0 0 0 0 0 75 71 8 0 0 0 0 0 0 0 0 0 0 0 0 0 0 0 5 10 20 18 26 3 3 0 2 0 0 0 1 0 0 0 0 0 0 0
0 0 0 0 0 0 0 0 59 25 58 8 0 0 0 0 0 0 0 0 0 0 0 0 0 0 0 0 24 14 21 13 9 2 0 4 0 0 0 0 0 4 0 0 0 0 6
0 0 0 0 0 0 77 72 48 65 70 55 0 0 0 0 0 0 0 0 0 0 0 0 0 0 0 0 0 1 41 55 8 13 1 14 0 0 0 0 0 0 0 0 0 8 37
0 0 0 0 0 78 80 5 3 11 30 0 0 0 0 0 0 0 0 0 0 0 0 0 0 0 0 0 0 119 297 72 51 19 8 6 0 0 0 0 0 0 0 0 0 1 2
0 0 58 51 45 85 60 61 67 30 0 0 0 0 0 0 0 0 0 0 0 0 0 0 0 0 0 0 491 350 205 68 17 2 0 1 0 1 0 0 0 0 0 0 0 0 0
67 73 86 81 75 72 64 67 62 63 94 0 0 0 0 0 0 0 0 0 0 0 0 0 0 0 0 1 155 102 69 55 28 0 31 26 10 0 0 0 0 0 0 0 0 0 0
0 0 0 7 7 6 3 0 48 44 80 0 0 0 0 0 0 0 0 0 0 0 0 0 0 0 1 0 60 4 20 15 4 0 3 1 0 0 22 0 0 0 0 0 0 0 0
68 71 61 68 62 58 63 65 59 42 65 28 0 0 0 0 0 4 0 0 0 0 0 0 0 0 10 6 0 0 3 22 10 0 14 0 0 0 0 0 0 27 0 0 0 0 0
51 56 55 55 56 75 84 63 53 48 68 72 0 0 0 0 0 59 31 4 1 0 0 0 6 5 0 8 24 12 0 0 0 0 20 17 0 0 0 0 0 22 47 23 6 8 85
44 45 38 27 35 37 53 55 59 59 72 81 28 0 0 0 34 74 134 78 58 73 38 0 0 0 0 1 23 44 34 10 0 0 0 52 0 0 0 1 26 30 10 13 20 18 32

GFSGBSN_con_mucape_048.txt.gz
CAPE
18 7 0 0 0 0 0 0 7 10 17 5 4 19 16 14 17 14 10 2 4 6 0 0 0 6 0 0 0 0 0 0 0 0 0 0 0 0 0 0 0 0 0 0 0 0 27
9 28 29 27 0 0 0 0 0 0 0 8 19 22 16 15 14 13 8 0 0 0 0 0 0 14 0 0 0 0 0 0 0 0 0 0 0 0 0 0 0 0 0 0 0 0 0
14 13 0 33 33 0 0 20 29 0 0 0 0 41 32 15 14 12 4 0 0 0 0 0 0 8 0 0 0 0 0 0 0 0 0 0 0 0 0 0 0 0 0 0 0 0 0
24 21 18 37 39 37 3 0 42 38 35 0 0 48 37 20 8 4 0 0 0 0 0 0 0 5 0 0 0 0 0 0 0 0 0 0 0 0 0 0 0 0 0 0 0 0 0
26 21 25 44 36 34 33 35 42 28 32 45 34 41 40 28 6 0 0 0 0 0 0 0 0 1 0 0 0 0 0 0 0 0 0 0 0 0 0 0 0 0 0 0 0 0 0
20 26 25 30 43 46 42 42 40 48 43 47 47 37 48 27 8 0 0 0 0 0 0 0 2 0 0 0 0 0 0 0 0 0 0 0 0 0 0 0 0 0 0 0 0 3 3
27 32 26 28 35 25 26 33 42 42 50 54 52 53 46 35 13 5 0 0 0 0 0 0 0 0 0 0 0 0 0 0 0 0 0 0 0 0 0 0 0 0 0 0 0 0 26
25 23 40 36 38 43 44 49 63 61 61 57 52 56 49 32 9 0 0 0 0 0 0 0 0 0 0 0 0 0 0 0 0 0 0 0 0 0 0 0 0 0 0 0 0 1 19
27 28 28 33 37 46 58 71 71 59 57 61 54 52 54 21 0 0 0 0 0 7 0 0 0 0 0 0 0 0 0 0 0 0 0 0 0 0 0 0 0 0 0 0 0 0 1
34 43 43 41 53 56 65 64 70 68 60 56 57 52 42 8 0 0 0 0 4 30 0 0 0 0 0 0 0 0 0 0 0 0 0 0 0 0 0 0 0 0 0 0 0 0 0
50 63 46 26 39 76 84 92 80 64 65 63 63 58 38 0 0 0 0 0 16 9 0 0 0 0 0 0 0 0 0 0 0 0 0 0 0 0 0 0 0 0 0 0 0 0 0
54 44 39 41 66 76 84 96 89 61 57 58 64 65 57 0 0 0 1 22 61 0 2 0 0 0 0 0 0 0 0 0 0 0 0 0 0 0 0 0 0 0 0 0 0 0 0
57 46 31 51 68 80 85 96 82 68 65 62 54 59 39 0 0 0 0 40 0 0 0 0 0 0 0 0 0 0 0 0 0 0 0 0 0 0 0 0 0 0 0 0 0 0 0
53 45 36 52 75 83 95 93 62 65 62 62 51 50 29 0 0 0 0 33 0 0 0 0 0 0 0 0 0 0 0 0 0 0 0 0 0 0 0 0 0 0 0 0 0 0 0
26 59 57 80 74 88 97 86 76 62 59 51 48 7 0 0 0 1 0 0 0 0 0 0 0 0 0 0 0 0 0 0 0 0 0 0 0 0 0 0 0 0 0 0 0 0 0
28 58 61 75 94 89 72 97 70 59 61 48 19 0 0 1 0 0 0 0 0 0 0 0 0 0 0 0 0 0 0 0 0 0 0 0 0 0 0 0 0 0 0 0 0 0 0
70 53 75 85 81 63 94 80 74 71 73 54 0 0 0 0 14 0 0 0 0 0 0 0 0 0 0 7 5 3 0 0 0 0 0 0 0 0 0 0 0 0 0 0 2 0 0
68 64 80 77 80 4 0 0 100 82 68 11 0 0 0 0 0 0 0 0 0 0 0 0 0 0 0 9 16 18 0 0 0 6 0 0 0 0 0 0 0 0 0 0 0 0 0
60 72 78 73 0 0 0 0 0 90 81 55 0 0 2 0 0 0 0 0 0 0 0 0 0 0 0 0 9 8 3 0 1 7 10 0 0 0 0 0 0 0 0 0 0 1 0
65 74 22 0 0 0 0 0 0 0 95 0 0 0 0 0 0 0 0 0 0 0 0 0 0 0 0 0 1 9 5 7 13 11 7 21 4 0 0 0 0 0 0 0 0 0 0
64 16 0 0 0 0 0 0 0 0 14 0 0 0 0 0 0 0 0 0 0 0 0 0 0 0 0 0 0 0 16 17 33 54 52 39 0 0 0 0 0 0 0 0 0 0 0
0 0 0 0 0 0 0 0 0 0 0 0 0 0 0 0 0 0 0 0 0 0 0 0 0 0 0 0 0 0 0 0 47 58 2 25 0 0 0 0 0 0 0 0 0 0 0
0 0 0 0 0 0 0 0 0 0 52 0 0 0 0 0 0 0 0 0 0 0 0 0 0 0 0 0 0 0 4 9 74 125 1 22 32 3 0 0 0 0 0 0 0 0 0
0 0 0 0 0 16 60 100 94 88 57 0 0 0 0 0 0 0 0 0 0 0 0 0 0 0 0 0 46 116 154 205 182 114 47 0 18 15 0 0 0 0 0 0 0 0 0
0 0 0 83 83 100 70 77 72 26 84 0 0 0 0 0 0 0 0 0 0 0 0 0 0 0 0 0 0 3 0 2 12 55 47 36 12 20 1 1 0 0 0 0 0 0 0
60 60 64 63 62 60 61 57 61 0 39 0 0 0 0 0 0 0 0 0 0 0 0 0 0 1 0 0 0 0 0 0 0 1 42 24 19 12 0 0 0 0 0 0 0 0 0
0 0 19 70 23 0 0 56 64 21 75 3 0 0 0 0 0 0 0 0 0 0 0 0 0 0 0 0 0 0 0 8 0 0 17 2 7 5 0 0 0 5 15 7 4 0 3
56 59 57 53 64 66 63 70 73 71 79 59 0 0 0 0 0 0 0 0 0 0 0 0 0 0 0 0 0 0 0 3 7 9 6 6 16 4 0 0 0 6 5 4 0 3 0
40 46 48 52 52 58 56 58 66 77 77 83 0 0 0 0 0 10 32 21 0 0 0 0 0 0 0 0 0 0 1 3 0 1 14 4 1 0 6 5 3 17 20 3 0 8 6